Wetterdaten: Samstag, 15.10.2016
Datum Zeit Temp. A. Feuchte A. Luftdruck Regen Wind Richtung Richtung Sonnenschein ET UV Solar Taupunkt Windchill Windben Empfang
15.10.2016 00:00 10,7 C 88 % 1008,1 hPa 0,0 l/m 9,0 km/h (2 Bft) O-NO 61 0 min 0,000 mm 0,0 UV-I 0 W/m 8,8 C 9,0 C 16,1 km/h (3 Bft) 100,00 %
15.10.2016 00:02 10,7 C 88 % 1008,1 hPa 0,0 l/m 9,4 km/h (2 Bft) N-NO 30 0 min 0,000 mm 0,0 UV-I 0 W/m 8,8 C 8,7 C 14,5 km/h (3 Bft) 100,00 %
15.10.2016 00:04 10,7 C 88 % 1008,0 hPa 0,0 l/m 12,0 km/h (2 Bft) NO 34 0 min 0,000 mm 0,0 UV-I 0 W/m 8,8 C 7,3 C 17,7 km/h (3 Bft) 98,11 %
15.10.2016 00:06 10,6 C 89 % 1008,1 hPa 0,0 l/m 9,2 km/h (2 Bft) N-NO 26 0 min 0,000 mm 0,0 UV-I 0 W/m 8,9 C 8,7 C 16,1 km/h (3 Bft) 100,00 %
15.10.2016 00:08 10,6 C 88 % 1008,3 hPa 0,0 l/m 8,4 km/h (2 Bft) NO 46 0 min 0,000 mm 0,0 UV-I 0 W/m 8,7 C 9,2 C 14,5 km/h (3 Bft) 100,00 %
15.10.2016 00:10 10,6 C 89 % 1008,3 hPa 0,0 l/m 10,5 km/h (2 Bft) O-NO 58 0 min 0,000 mm 0,0 UV-I 0 W/m 8,9 C 8,0 C 16,1 km/h (3 Bft) 100,00 %
15.10.2016 00:12 10,7 C 89 % 1008,4 hPa 0,0 l/m 9,1 km/h (2 Bft) O-NO 71 0 min 0,000 mm 0,0 UV-I 0 W/m 9,0 C 8,9 C 14,5 km/h (3 Bft) 100,00 %
15.10.2016 00:14 10,7 C 88 % 1008,4 hPa 0,0 l/m 9,7 km/h (2 Bft) O 79 0 min 0,000 mm 0,0 UV-I 0 W/m 8,8 C 8,5 C 12,9 km/h (3 Bft) 100,00 %
15.10.2016 00:16 10,7 C 88 % 1008,4 hPa 0,0 l/m 11,8 km/h (2 Bft) O-NO 67 0 min 0,000 mm 0,0 UV-I 0 W/m 8,8 C 7,4 C 16,1 km/h (3 Bft) 100,00 %
15.10.2016 00:18 10,7 C 88 % 1008,2 hPa 0,0 l/m 14,6 km/h (3 Bft) O-NO 76 0 min 0,000 mm 0,0 UV-I 0 W/m 8,8 C 6,1 C 19,3 km/h (3 Bft) 98,11 %
15.10.2016 00:20 10,7 C 88 % 1008,2 hPa 0,0 l/m 14,4 km/h (3 Bft) O-NO 78 0 min 0,000 mm 0,0 UV-I 0 W/m 8,8 C 6,2 C 17,7 km/h (3 Bft) 100,00 %
15.10.2016 00:22 10,8 C 88 % 1008,3 hPa 0,0 l/m 12,5 km/h (3 Bft) O-NO 58 0 min 0,000 mm 0,0 UV-I 0 W/m 8,9 C 7,2 C 19,3 km/h (3 Bft) 100,00 %
15.10.2016 00:24 10,8 C 88 % 1008,3 hPa 0,0 l/m 12,8 km/h (3 Bft) O-SO 119 0 min 0,000 mm 0,0 UV-I 0 W/m 8,9 C 7,1 C 19,3 km/h (3 Bft) 100,00 %
15.10.2016 00:26 10,8 C 88 % 1008,4 hPa 0,0 l/m 11,5 km/h (2 Bft) O 81 0 min 0,000 mm 0,0 UV-I 0 W/m 8,9 C 7,7 C 17,7 km/h (3 Bft) 100,00 %
15.10.2016 00:28 10,9 C 88 % 1008,4 hPa 0,0 l/m 14,3 km/h (3 Bft) O-NO 77 0 min 0,000 mm 0,0 UV-I 0 W/m 9,0 C 6,5 C 19,3 km/h (3 Bft) 100,00 %
15.10.2016 00:30 10,9 C 87 % 1008,2 hPa 0,0 l/m 14,9 km/h (3 Bft) O-NO 69 0 min 0,000 mm 0,0 UV-I 0 W/m 8,8 C 6,3 C 19,3 km/h (3 Bft) 100,00 %
15.10.2016 00:32 10,9 C 87 % 1008,1 hPa 0,0 l/m 13,5 km/h (3 Bft) NO 53 0 min 0,000 mm 0,0 UV-I 0 W/m 8,8 C 6,9 C 19,3 km/h (3 Bft) 100,00 %
15.10.2016 00:34 10,9 C 87 % 1008,1 hPa 0,0 l/m 13,8 km/h (3 Bft) NO 47 0 min 0,000 mm 0,0 UV-I 0 W/m 8,8 C 6,7 C 19,3 km/h (3 Bft) 100,00 %
15.10.2016 00:36 10,9 C 87 % 1008,3 hPa 0,0 l/m 9,7 km/h (2 Bft) O 94 0 min 0,000 mm 0,0 UV-I 0 W/m 8,8 C 8,8 C 16,1 km/h (3 Bft) 96,55 %
15.10.2016 00:38 10,9 C 87 % 1008,3 hPa 0,0 l/m 6,4 km/h (2 Bft) O-NO 76 0 min 0,000 mm 0,0 UV-I 0 W/m 8,8 C 10,9 C 8,0 km/h (2 Bft) 97,22 %
15.10.2016 00:40 10,9 C 87 % 1008,3 hPa 0,0 l/m 8,6 km/h (2 Bft) O-NO 61 0 min 0,000 mm 0,0 UV-I 0 W/m 8,8 C 9,4 C 14,5 km/h (3 Bft) 98,00 %
15.10.2016 00:42 10,9 C 87 % 1008,3 hPa 0,0 l/m 9,8 km/h (2 Bft) NO 53 0 min 0,000 mm 0,0 UV-I 0 W/m 8,8 C 8,7 C 14,5 km/h (3 Bft) 98,11 %
15.10.2016 00:44 10,9 C 87 % 1008,2 hPa 0,0 l/m 12,4 km/h (3 Bft) NO 54 0 min 0,000 mm 0,0 UV-I 0 W/m 8,8 C 7,4 C 17,7 km/h (3 Bft) 97,87 %
15.10.2016 00:46 10,9 C 87 % 1008,2 hPa 0,0 l/m 13,6 km/h (3 Bft) O-NO 63 0 min 0,000 mm 0,0 UV-I 0 W/m 8,8 C 6,8 C 19,3 km/h (3 Bft) 92,68 %
15.10.2016 00:48 11,0 C 87 % 1008,1 hPa 0,0 l/m 14,8 km/h (3 Bft) O-NO 63 0 min 0,000 mm 0,0 UV-I 0 W/m 8,9 C 6,4 C 19,3 km/h (3 Bft) 97,73 %
15.10.2016 00:50 11,0 C 87 % 1008,1 hPa 0,0 l/m 14,4 km/h (3 Bft) O-NO 63 0 min 0,000 mm 0,0 UV-I 0 W/m 8,9 C 6,6 C 19,3 km/h (3 Bft) 96,43 %
15.10.2016 00:52 11,1 C 87 % 1008,1 hPa 0,0 l/m 13,5 km/h (3 Bft) NO 48 0 min 0,000 mm 0,0 UV-I 0 W/m 9,0 C 7,1 C 19,3 km/h (3 Bft) 97,87 %
15.10.2016 00:54 11,1 C 87 % 1008,1 hPa 0,0 l/m 14,2 km/h (3 Bft) O-NO 59 0 min 0,000 mm 0,0 UV-I 0 W/m 9,0 C 6,8 C 19,3 km/h (3 Bft) 97,37 %
15.10.2016 00:56 11,1 C 87 % 1008,0 hPa 0,0 l/m 12,2 km/h (2 Bft) NO 45 0 min 0,000 mm 0,0 UV-I 0 W/m 9,0 C 7,7 C 17,7 km/h (3 Bft) 97,87 %
15.10.2016 00:58 11,1 C 87 % 1008,0 hPa 0,0 l/m 11,0 km/h (2 Bft) O-NO 57 0 min 0,000 mm 0,0 UV-I 0 W/m 9,0 C 8,3 C 16,1 km/h (3 Bft) 97,96 %
15.10.2016 01:00 11,0 C 87 % 1007,9 hPa 0,0 l/m 9,1 km/h (2 Bft) O-NO 76 0 min 0,025 mm 0,0 UV-I 0 W/m 8,9 C 9,2 C 12,9 km/h (3 Bft) 97,73 %
15.10.2016 01:02 11,0 C 87 % 1007,8 hPa 0,0 l/m 7,8 km/h (2 Bft) N-NO 31 0 min 0,000 mm 0,0 UV-I 0 W/m 8,9 C 10,0 C 12,9 km/h (3 Bft) 98,21 %
15.10.2016 01:04 10,9 C 87 % 1007,9 hPa 0,0 l/m 9,0 km/h (2 Bft) O-NO 63 0 min 0,000 mm 0,0 UV-I 0 W/m 8,8 C 9,2 C 14,5 km/h (3 Bft) 97,37 %
15.10.2016 01:06 10,9 C 87 % 1007,9 hPa 0,0 l/m 9,3 km/h (2 Bft) NO 35 0 min 0,000 mm 0,0 UV-I 0 W/m 8,8 C 9,0 C 14,5 km/h (3 Bft) 98,11 %
15.10.2016 01:08 10,9 C 88 % 1008,0 hPa 0,0 l/m 7,3 km/h (2 Bft) O-NO 59 0 min 0,000 mm 0,0 UV-I 0 W/m 9,0 C 10,3 C 14,5 km/h (3 Bft) 95,74 %
15.10.2016 01:10 10,9 C 88 % 1008,0 hPa 0,0 l/m 9,6 km/h (2 Bft) O-NO 59 0 min 0,000 mm 0,0 UV-I 0 W/m 9,0 C 8,8 C 14,5 km/h (3 Bft) 97,87 %
15.10.2016 01:12 10,9 C 88 % 1008,0 hPa 0,0 l/m 9,4 km/h (2 Bft) NO 52 0 min 0,000 mm 0,0 UV-I 0 W/m 9,0 C 8,9 C 14,5 km/h (3 Bft) 100,00 %
15.10.2016 01:14 11,0 C 87 % 1008,0 hPa 0,0 l/m 10,1 km/h (2 Bft) O-NO 59 0 min 0,000 mm 0,0 UV-I 0 W/m 8,9 C 8,6 C 16,1 km/h (3 Bft) 100,00 %
15.10.2016 01:16 11,0 C 87 % 1008,0 hPa 0,0 l/m 8,1 km/h (2 Bft) O-NO 65 0 min 0,000 mm 0,0 UV-I 0 W/m 8,9 C 9,8 C 14,5 km/h (3 Bft) 100,00 %
15.10.2016 01:18 11,0 C 87 % 1008,0 hPa 0,0 l/m 9,2 km/h (2 Bft) NO 44 0 min 0,000 mm 0,0 UV-I 0 W/m 8,9 C 9,2 C 14,5 km/h (3 Bft) 100,00 %
15.10.2016 01:20 11,0 C 87 % 1008,2 hPa 0,0 l/m 5,9 km/h (2 Bft) O-NO 75 0 min 0,000 mm 0,0 UV-I 0 W/m 8,9 C 11,0 C 8,0 km/h (2 Bft) 100,00 %
15.10.2016 01:22 10,9 C 87 % 1008,2 hPa 0,0 l/m 5,1 km/h (1 Bft) NO 51 0 min 0,000 mm 0,0 UV-I 0 W/m 8,8 C 10,9 C 6,4 km/h (2 Bft) 100,00 %
15.10.2016 01:24 10,9 C 88 % 1008,1 hPa 0,0 l/m 6,2 km/h (2 Bft) O-NO 59 0 min 0,000 mm 0,0 UV-I 0 W/m 9,0 C 10,9 C 9,7 km/h (2 Bft) 97,87 %
15.10.2016 01:26 10,9 C 88 % 1008,1 hPa 0,0 l/m 6,8 km/h (2 Bft) O-NO 67 0 min 0,000 mm 0,0 UV-I 0 W/m 9,0 C 10,6 C 9,7 km/h (2 Bft) 100,00 %
15.10.2016 01:28 10,9 C 88 % 1008,1 hPa 0,0 l/m 7,7 km/h (2 Bft) NO 46 0 min 0,000 mm 0,0 UV-I 0 W/m 9,0 C 10,0 C 11,3 km/h (2 Bft) 97,14 %
15.10.2016 01:30 10,9 C 88 % 1007,9 hPa 0,0 l/m 6,5 km/h (2 Bft) O-NO 61 0 min 0,000 mm 0,0 UV-I 0 W/m 9,0 C 10,9 C 9,7 km/h (2 Bft) 100,00 %
15.10.2016 01:32 10,9 C 88 % 1007,9 hPa 0,0 l/m 6,8 km/h (2 Bft) O-NO 63 0 min 0,000 mm 0,0 UV-I 0 W/m 9,0 C 10,6 C 12,9 km/h (3 Bft) 100,00 %
15.10.2016 01:34 10,9 C 88 % 1007,8 hPa 0,0 l/m 8,1 km/h (2 Bft) NO 50 0 min 0,000 mm 0,0 UV-I 0 W/m 9,0 C 9,7 C 12,9 km/h (3 Bft) 100,00 %
15.10.2016 01:36 10,9 C 88 % 1007,7 hPa 0,0 l/m 8,0 km/h (2 Bft) NO 53 0 min 0,000 mm 0,0 UV-I 0 W/m 9,0 C 9,8 C 11,3 km/h (2 Bft) 100,00 %
15.10.2016 01:38 10,9 C 88 % 1007,6 hPa 0,0 l/m 7,7 km/h (2 Bft) O-NO 76 0 min 0,000 mm 0,0 UV-I 0 W/m 9,0 C 10,0 C 12,9 km/h (3 Bft) 100,00 %
15.10.2016 01:40 10,8 C 88 % 1007,6 hPa 0,0 l/m 7,8 km/h (2 Bft) O-NO 71 0 min 0,000 mm 0,0 UV-I 0 W/m 8,9 C 9,8 C 12,9 km/h (3 Bft) 100,00 %
15.10.2016 01:42 10,9 C 88 % 1007,5 hPa 0,0 l/m 6,5 km/h (2 Bft) O-NO 63 0 min 0,000 mm 0,0 UV-I 0 W/m 9,0 C 10,9 C 9,7 km/h (2 Bft) 100,00 %
15.10.2016 01:44 10,8 C 88 % 1007,5 hPa 0,0 l/m 8,2 km/h (2 Bft) NO 52 0 min 0,000 mm 0,0 UV-I 0 W/m 8,9 C 9,6 C 12,9 km/h (3 Bft) 98,00 %
15.10.2016 01:46 10,9 C 88 % 1007,5 hPa 0,0 l/m 7,2 km/h (2 Bft) O-NO 63 0 min 0,000 mm 0,0 UV-I 0 W/m 9,0 C 10,3 C 14,5 km/h (3 Bft) 100,00 %
15.10.2016 01:48 10,8 C 88 % 1007,6 hPa 0,0 l/m 5,2 km/h (1 Bft) NO 37 0 min 0,000 mm 0,0 UV-I 0 W/m 8,9 C 10,8 C 8,0 km/h (2 Bft) 100,00 %
15.10.2016 01:50 10,8 C 88 % 1007,6 hPa 0,0 l/m 2,1 km/h (1 Bft) N 355 0 min 0,000 mm 0,0 UV-I 0 W/m 8,9 C 10,8 C 4,8 km/h (1 Bft) 100,00 %
15.10.2016 01:52 10,7 C 89 % 1007,6 hPa 0,0 l/m 2,0 km/h (1 Bft) NW 319 0 min 0,000 mm 0,0 UV-I 0 W/m 9,0 C 10,7 C 4,8 km/h (1 Bft) 100,00 %
15.10.2016 01:54 10,7 C 89 % 1007,5 hPa 0,0 l/m 1,2 km/h (1 Bft) N 360 0 min 0,000 mm 0,0 UV-I 0 W/m 9,0 C 10,7 C 4,8 km/h (1 Bft) 97,87 %
15.10.2016 01:56 10,6 C 89 % 1007,4 hPa 0,0 l/m 6,8 km/h (2 Bft) O-NO 61 0 min 0,000 mm 0,0 UV-I 0 W/m 8,9 C 10,3 C 9,7 km/h (2 Bft) 100,00 %
15.10.2016 01:58 10,7 C 89 % 1007,2 hPa 0,0 l/m 11,4 km/h (2 Bft) O-NO 59 0 min 0,000 mm 0,0 UV-I 0 W/m 9,0 C 7,6 C 16,1 km/h (3 Bft) 97,87 %
15.10.2016 02:00 10,7 C 89 % 1007,2 hPa 0,0 l/m 12,4 km/h (3 Bft) NO 53 0 min 0,000 mm 0,0 UV-I 0 W/m 9,0 C 7,1 C 16,1 km/h (3 Bft) 100,00 %
15.10.2016 02:02 10,8 C 89 % 1007,3 hPa 0,0 l/m 12,7 km/h (3 Bft) NO 55 0 min 0,000 mm 0,0 UV-I 0 W/m 9,1 C 7,1 C 16,1 km/h (3 Bft) 98,11 %
15.10.2016 02:04 10,9 C 89 % 1007,4 hPa 0,0 l/m 13,2 km/h (3 Bft) NO 34 0 min 0,000 mm 0,0 UV-I 0 W/m 9,2 C 7,0 C 17,7 km/h (3 Bft) 95,12 %
15.10.2016 02:06 10,9 C 89 % 1007,4 hPa 0,0 l/m 13,4 km/h (3 Bft) NO 55 0 min 0,000 mm 0,0 UV-I 0 W/m 9,2 C 6,9 C 19,3 km/h (3 Bft) 100,00 %
15.10.2016 02:08 11,0 C 89 % 1007,3 hPa 0,0 l/m 12,6 km/h (3 Bft) NO 47 0 min 0,000 mm 0,0 UV-I 0 W/m 9,3 C 7,4 C 16,1 km/h (3 Bft) 100,00 %
15.10.2016 02:10 11,0 C 88 % 1007,2 hPa 0,0 l/m 13,7 km/h (3 Bft) O-NO 63 0 min 0,000 mm 0,0 UV-I 0 W/m 9,1 C 6,9 C 17,7 km/h (3 Bft) 100,00 %
15.10.2016 02:12 11,1 C 88 % 1007,3 hPa 0,0 l/m 12,1 km/h (2 Bft) O-NO 60 0 min 0,000 mm 0,0 UV-I 0 W/m 9,2 C 7,7 C 19,3 km/h (3 Bft) 97,87 %
15.10.2016 02:14 11,1 C 88 % 1007,4 hPa 0,0 l/m 11,3 km/h (2 Bft) NO 45 0 min 0,000 mm 0,0 UV-I 0 W/m 9,2 C 8,1 C 16,1 km/h (3 Bft) 100,00 %
15.10.2016 02:16 11,1 C 88 % 1007,4 hPa 0,0 l/m 12,0 km/h (2 Bft) NO 37 0 min 0,000 mm 0,0 UV-I 0 W/m 9,2 C 7,8 C 17,7 km/h (3 Bft) 100,00 %
15.10.2016 02:18 11,2 C 88 % 1007,3 hPa 0,0 l/m 7,1 km/h (2 Bft) NO 39 0 min 0,000 mm 0,0 UV-I 0 W/m 9,3 C 10,7 C 11,3 km/h (2 Bft) 94,00 %
15.10.2016 02:20 11,1 C 88 % 1007,4 hPa 0,0 l/m 9,4 km/h (2 Bft) O-NO 63 0 min 0,000 mm 0,0 UV-I 0 W/m 9,2 C 9,1 C 14,5 km/h (3 Bft) 100,00 %
15.10.2016 02:22 11,1 C 88 % 1007,3 hPa 0,0 l/m 8,1 km/h (2 Bft) NO 55 0 min 0,000 mm 0,0 UV-I 0 W/m 9,2 C 9,9 C 12,9 km/h (3 Bft) 100,00 %
15.10.2016 02:24 11,1 C 88 % 1007,3 hPa 0,0 l/m 10,0 km/h (2 Bft) O-NO 58 0 min 0,000 mm 0,0 UV-I 0 W/m 9,2 C 8,8 C 14,5 km/h (3 Bft) 97,87 %
15.10.2016 02:26 11,1 C 88 % 1007,3 hPa 0,0 l/m 10,9 km/h (2 Bft) O 80 0 min 0,000 mm 0,0 UV-I 0 W/m 9,2 C 8,3 C 14,5 km/h (3 Bft) 100,00 %
15.10.2016 02:28 11,0 C 88 % 1007,3 hPa 0,0 l/m 9,1 km/h (2 Bft) O-NO 76 0 min 0,000 mm 0,0 UV-I 0 W/m 9,1 C 9,2 C 14,5 km/h (3 Bft) 100,00 %
15.10.2016 02:30 11,0 C 88 % 1007,3 hPa 0,0 l/m 12,3 km/h (3 Bft) O-NO 60 0 min 0,000 mm 0,0 UV-I 0 W/m 9,1 C 7,5 C 16,1 km/h (3 Bft) 100,00 %
15.10.2016 02:32 11,1 C 88 % 1007,3 hPa 0,0 l/m 10,7 km/h (2 Bft) O-NO 77 0 min 0,000 mm 0,0 UV-I 0 W/m 9,2 C 8,4 C 14,5 km/h (3 Bft) 96,36 %
15.10.2016 02:34 11,1 C 88 % 1007,4 hPa 0,0 l/m 14,4 km/h (3 Bft) O-NO 68 0 min 0,000 mm 0,0 UV-I 0 W/m 9,2 C 6,7 C 17,7 km/h (3 Bft) 100,00 %
15.10.2016 02:36 11,2 C 88 % 1007,3 hPa 0,0 l/m 14,4 km/h (3 Bft) O-NO 64 0 min 0,000 mm 0,0 UV-I 0 W/m 9,3 C 6,8 C 19,3 km/h (3 Bft) 98,00 %
15.10.2016 02:38 11,2 C 88 % 1007,4 hPa 0,0 l/m 14,6 km/h (3 Bft) O-NO 76 0 min 0,000 mm 0,0 UV-I 0 W/m 9,3 C 6,7 C 20,9 km/h (4 Bft) 97,87 %
15.10.2016 02:40 11,2 C 88 % 1007,5 hPa 0,0 l/m 11,2 km/h (2 Bft) O 89 0 min 0,000 mm 0,0 UV-I 0 W/m 9,3 C 8,3 C 16,1 km/h (3 Bft) 98,11 %
15.10.2016 02:42 11,3 C 88 % 1007,7 hPa 0,0 l/m 8,1 km/h (2 Bft) O-SO 115 0 min 0,000 mm 0,0 UV-I 0 W/m 9,4 C 10,2 C 12,9 km/h (3 Bft) 97,56 %
15.10.2016 02:44 11,3 C 88 % 1007,8 hPa 0,0 l/m 4,9 km/h (1 Bft) NO 46 0 min 0,000 mm 0,0 UV-I 0 W/m 9,4 C 11,3 C 9,7 km/h (2 Bft) 95,74 %
15.10.2016 02:46 11,3 C 87 % 1007,7 hPa 0,0 l/m 3,1 km/h (1 Bft) NO 53 0 min 0,000 mm 0,0 UV-I 0 W/m 9,2 C 11,3 C 6,4 km/h (2 Bft) 98,00 %
15.10.2016 02:48 11,2 C 88 % 1007,7 hPa 0,0 l/m 1,4 km/h (1 Bft) NO 52 0 min 0,000 mm 0,0 UV-I 0 W/m 9,3 C 11,2 C 3,2 km/h (1 Bft) 97,56 %
15.10.2016 02:50 11,1 C 88 % 1007,8 hPa 0,0 l/m 2,6 km/h (1 Bft) NO 52 0 min 0,000 mm 0,0 UV-I 0 W/m 9,2 C 11,1 C 4,8 km/h (1 Bft) 98,00 %
15.10.2016 02:52 10,9 C 89 % 1007,6 hPa 0,0 l/m 5,0 km/h (1 Bft) NO 40 0 min 0,000 mm 0,0 UV-I 0 W/m 9,2 C 10,9 C 8,0 km/h (2 Bft) 96,00 %
15.10.2016 02:54 10,8 C 89 % 1007,6 hPa 0,0 l/m 6,0 km/h (2 Bft) O-NO 74 0 min 0,000 mm 0,0 UV-I 0 W/m 9,1 C 10,8 C 8,0 km/h (2 Bft) 97,37 %
15.10.2016 02:56 10,8 C 89 % 1007,6 hPa 0,0 l/m 8,1 km/h (2 Bft) O-NO 78 0 min 0,000 mm 0,0 UV-I 0 W/m 9,1 C 9,6 C 11,3 km/h (2 Bft) 98,00 %
15.10.2016 02:58 10,7 C 90 % 1007,4 hPa 0,0 l/m 6,8 km/h (2 Bft) O-NO 65 0 min 0,000 mm 0,0 UV-I 0 W/m 9,1 C 10,4 C 8,0 km/h (2 Bft) 96,00 %
15.10.2016 03:00 10,7 C 90 % 1007,5 hPa 0,0 l/m 9,0 km/h (2 Bft) O 94 0 min 0,000 mm 0,0 UV-I 0 W/m 9,1 C 9,0 C 12,9 km/h (3 Bft) 97,37 %
15.10.2016 03:02 10,7 C 90 % 1007,5 hPa 0,0 l/m 7,1 km/h (2 Bft) O 92 0 min 0,026 mm 0,0 UV-I 0 W/m 9,1 C 10,2 C 11,3 km/h (2 Bft) 98,11 %
15.10.2016 03:04 10,7 C 90 % 1007,3 hPa 0,0 l/m 7,5 km/h (2 Bft) O-NO 69 0 min 0,000 mm 0,0 UV-I 0 W/m 9,1 C 9,9 C 12,9 km/h (3 Bft) 98,11 %
15.10.2016 03:06 10,8 C 90 % 1007,3 hPa 0,0 l/m 7,1 km/h (2 Bft) O-NO 64 0 min 0,000 mm 0,0 UV-I 0 W/m 9,2 C 10,3 C 11,3 km/h (2 Bft) 97,37 %
15.10.2016 03:08 10,8 C 90 % 1007,5 hPa 0,0 l/m 9,4 km/h (2 Bft) O-NO 76 0 min 0,000 mm 0,0 UV-I 0 W/m 9,2 C 8,8 C 14,5 km/h (3 Bft) 96,00 %
15.10.2016 03:10 10,9 C 89 % 1007,4 hPa 0,0 l/m 11,0 km/h (2 Bft) O 85 0 min 0,000 mm 0,0 UV-I 0 W/m 9,2 C 8,1 C 17,7 km/h (3 Bft) 98,11 %
15.10.2016 03:12 11,0 C 89 % 1007,4 hPa 0,0 l/m 13,3 km/h (3 Bft) O-NO 64 0 min 0,000 mm 0,0 UV-I 0 W/m 9,3 C 7,1 C 17,7 km/h (3 Bft) 100,00 %
15.10.2016 03:14 11,1 C 89 % 1007,3 hPa 0,0 l/m 13,7 km/h (3 Bft) NO 56 0 min 0,000 mm 0,0 UV-I 0 W/m 9,4 C 7,0 C 17,7 km/h (3 Bft) 98,11 %
15.10.2016 03:16 11,1 C 89 % 1007,3 hPa 0,0 l/m 12,3 km/h (3 Bft) O-NO 74 0 min 0,000 mm 0,0 UV-I 0 W/m 9,4 C 7,6 C 16,1 km/h (3 Bft) 100,00 %
15.10.2016 03:18 11,2 C 88 % 1007,0 hPa 0,0 l/m 12,4 km/h (3 Bft) O-NO 67 0 min 0,000 mm 0,0 UV-I 0 W/m 9,3 C 7,7 C 19,3 km/h (3 Bft) 100,00 %
15.10.2016 03:20 11,2 C 88 % 1006,9 hPa 0,0 l/m 13,2 km/h (3 Bft) O-NO 57 0 min 0,000 mm 0,0 UV-I 0 W/m 9,3 C 7,3 C 17,7 km/h (3 Bft) 100,00 %
15.10.2016 03:22 11,2 C 88 % 1006,9 hPa 0,0 l/m 15,9 km/h (3 Bft) O 83 0 min 0,000 mm 0,0 UV-I 0 W/m 9,3 C 6,2 C 20,9 km/h (4 Bft) 100,00 %
15.10.2016 03:24 11,2 C 88 % 1007,0 hPa 0,0 l/m 17,1 km/h (3 Bft) O 93 0 min 0,000 mm 0,0 UV-I 0 W/m 9,3 C 5,8 C 22,5 km/h (4 Bft) 100,00 %
15.10.2016 03:26 11,2 C 88 % 1007,0 hPa 0,0 l/m 15,2 km/h (3 Bft) O-NO 74 0 min 0,000 mm 0,0 UV-I 0 W/m 9,3 C 6,5 C 20,9 km/h (4 Bft) 100,00 %
15.10.2016 03:28 11,3 C 88 % 1007,0 hPa 0,0 l/m 14,9 km/h (3 Bft) O-NO 66 0 min 0,000 mm 0,0 UV-I 0 W/m 9,4 C 6,7 C 20,9 km/h (4 Bft) 100,00 %
15.10.2016 03:30 11,3 C 88 % 1007,1 hPa 0,0 l/m 11,6 km/h (2 Bft) O 90 0 min 0,000 mm 0,0 UV-I 0 W/m 9,4 C 8,2 C 20,9 km/h (4 Bft) 96,23 %
15.10.2016 03:32 11,3 C 88 % 1007,1 hPa 0,0 l/m 8,5 km/h (2 Bft) O 91 0 min 0,000 mm 0,0 UV-I 0 W/m 9,4 C 9,9 C 11,3 km/h (2 Bft) 100,00 %
15.10.2016 03:34 11,3 C 88 % 1007,2 hPa 0,0 l/m 7,0 km/h (2 Bft) O-SO 105 0 min 0,000 mm 0,0 UV-I 0 W/m 9,4 C 10,9 C 12,9 km/h (3 Bft) 100,00 %
15.10.2016 03:36 11,3 C 88 % 1007,3 hPa 0,0 l/m 3,9 km/h (1 Bft) O 87 0 min 0,000 mm 0,0 UV-I 0 W/m 9,4 C 11,3 C 11,3 km/h (2 Bft) 100,00 %
15.10.2016 03:38 11,3 C 88 % 1007,2 hPa 0,0 l/m 5,0 km/h (1 Bft) O-NO 62 0 min 0,000 mm 0,0 UV-I 0 W/m 9,4 C 11,3 C 8,0 km/h (2 Bft) 100,00 %
15.10.2016 03:40 11,3 C 88 % 1007,2 hPa 0,0 l/m 3,8 km/h (1 Bft) NO 53 0 min 0,000 mm 0,0 UV-I 0 W/m 9,4 C 11,3 C 6,4 km/h (2 Bft) 100,00 %
15.10.2016 03:42 11,3 C 88 % 1007,3 hPa 0,0 l/m 1,5 km/h (1 Bft) NO 38 0 min 0,000 mm 0,0 UV-I 0 W/m 9,4 C 11,3 C 3,2 km/h (1 Bft) 100,00 %
15.10.2016 03:44 11,3 C 89 % 1007,4 hPa 0,2 l/m 1,1 km/h (1 Bft) N-NO 25 0 min 0,000 mm 0,0 UV-I 0 W/m 9,6 C 11,3 C 3,2 km/h (1 Bft) 100,00 %
15.10.2016 03:46 11,2 C 89 % 1007,3 hPa 0,2 l/m 1,3 km/h (1 Bft) N 355 0 min 0,000 mm 0,0 UV-I 0 W/m 9,5 C 11,2 C 4,8 km/h (1 Bft) 100,00 %
15.10.2016 03:48 11,1 C 90 % 1007,2 hPa 0,2 l/m 0,5 km/h (0 Bft) N 355 0 min 0,000 mm 0,0 UV-I 0 W/m 9,5 C 11,1 C 3,2 km/h (1 Bft) 100,00 %
15.10.2016 03:50 10,9 C 91 % 1007,1 hPa 0,2 l/m 0,4 km/h (0 Bft) N 355 0 min 0,000 mm 0,0 UV-I 0 W/m 9,5 C 10,9 C 1,6 km/h (1 Bft) 100,00 %
15.10.2016 03:52 10,8 C 91 % 1007,1 hPa 0,0 l/m 0,3 km/h (0 Bft) N 355 0 min 0,000 mm 0,0 UV-I 0 W/m 9,4 C 10,8 C 1,6 km/h (1 Bft) 100,00 %
15.10.2016 03:54 10,7 C 92 % 1007,2 hPa 0,0 l/m 0,3 km/h (0 Bft) N 355 0 min 0,000 mm 0,0 UV-I 0 W/m 9,5 C 10,7 C 3,2 km/h (1 Bft) 100,00 %
15.10.2016 03:56 10,7 C 92 % 1007,3 hPa 0,0 l/m 2,7 km/h (1 Bft) N-NW 331 0 min 0,000 mm 0,0 UV-I 0 W/m 9,5 C 10,7 C 3,2 km/h (1 Bft) 100,00 %
15.10.2016 03:58 10,7 C 93 % 1007,2 hPa 0,0 l/m 2,7 km/h (1 Bft) NW 317 0 min 0,000 mm 0,0 UV-I 0 W/m 9,6 C 10,7 C 4,8 km/h (1 Bft) 100,00 %
15.10.2016 04:00 10,6 C 93 % 1007,0 hPa 0,0 l/m 3,2 km/h (1 Bft) W-NW 287 0 min 0,000 mm 0,0 UV-I 0 W/m 9,5 C 10,6 C 4,8 km/h (1 Bft) 100,00 %
15.10.2016 04:02 10,6 C 93 % 1007,0 hPa 0,0 l/m 3,7 km/h (1 Bft) W-SW 251 0 min 0,000 mm 0,0 UV-I 0 W/m 9,5 C 10,6 C 4,8 km/h (1 Bft) 100,00 %
15.10.2016 04:04 10,6 C 93 % 1006,9 hPa 0,0 l/m 0,3 km/h (0 Bft) W-SW 251 0 min 0,000 mm 0,0 UV-I 0 W/m 9,5 C 10,6 C 1,6 km/h (1 Bft) 100,00 %
15.10.2016 04:06 10,6 C 93 % 1006,8 hPa 0,0 l/m 2,6 km/h (1 Bft) N-NO 28 0 min 0,000 mm 0,0 UV-I 0 W/m 9,5 C 10,6 C 4,8 km/h (1 Bft) 100,00 %
15.10.2016 04:08 10,5 C 93 % 1006,7 hPa 0,0 l/m 3,2 km/h (1 Bft) N-NO 28 0 min 0,000 mm 0,0 UV-I 0 W/m 9,4 C 10,5 C 4,8 km/h (1 Bft) 100,00 %
15.10.2016 04:10 10,4 C 93 % 1006,6 hPa 0,0 l/m 3,6 km/h (1 Bft) N-NO 25 0 min 0,000 mm 0,0 UV-I 0 W/m 9,3 C 10,4 C 6,4 km/h (2 Bft) 100,00 %
15.10.2016 04:12 10,4 C 94 % 1006,6 hPa 0,0 l/m 6,3 km/h (2 Bft) NO 41 0 min 0,000 mm 0,0 UV-I 0 W/m 9,5 C 10,4 C 8,0 km/h (2 Bft) 100,00 %
15.10.2016 04:14 10,3 C 94 % 1006,4 hPa 0,0 l/m 8,4 km/h (2 Bft) N-NO 32 0 min 0,000 mm 0,0 UV-I 0 W/m 9,4 C 8,9 C 12,9 km/h (3 Bft) 100,00 %
15.10.2016 04:16 10,3 C 94 % 1006,3 hPa 0,0 l/m 8,9 km/h (2 Bft) N-NO 30 0 min 0,000 mm 0,0 UV-I 0 W/m 9,4 C 8,6 C 14,5 km/h (3 Bft) 100,00 %
15.10.2016 04:18 10,3 C 94 % 1006,4 hPa 0,0 l/m 5,4 km/h (1 Bft) O-NO 78 0 min 0,000 mm 0,0 UV-I 0 W/m 9,4 C 10,3 C 11,3 km/h (2 Bft) 97,56 %
15.10.2016 04:20 10,2 C 94 % 1006,6 hPa 0,0 l/m 5,7 km/h (1 Bft) O-NO 76 0 min 0,000 mm 0,0 UV-I 0 W/m 9,3 C 10,2 C 8,0 km/h (2 Bft) 100,00 %
15.10.2016 04:22 10,2 C 94 % 1006,6 hPa 0,0 l/m 4,4 km/h (1 Bft) O 100 0 min 0,000 mm 0,0 UV-I 0 W/m 9,3 C 10,2 C 6,4 km/h (2 Bft) 100,00 %
15.10.2016 04:24 10,2 C 95 % 1006,4 hPa 0,0 l/m 5,7 km/h (1 Bft) NO 38 0 min 0,000 mm 0,0 UV-I 0 W/m 9,4 C 10,2 C 9,7 km/h (2 Bft) 100,00 %
15.10.2016 04:26 10,3 C 95 % 1006,5 hPa 0,0 l/m 4,9 km/h (1 Bft) O 80 0 min 0,000 mm 0,0 UV-I 0 W/m 9,5 C 10,3 C 8,0 km/h (2 Bft) 100,00 %
15.10.2016 04:28 10,3 C 95 % 1006,5 hPa 0,0 l/m 5,9 km/h (2 Bft) O-NO 77 0 min 0,000 mm 0,0 UV-I 0 W/m 9,5 C 10,3 C 8,0 km/h (2 Bft) 100,00 %
15.10.2016 04:30 10,3 C 95 % 1006,4 hPa 0,0 l/m 6,7 km/h (2 Bft) O 82 0 min 0,000 mm 0,0 UV-I 0 W/m 9,5 C 10,1 C 8,0 km/h (2 Bft) 96,49 %
15.10.2016 04:32 10,3 C 95 % 1006,4 hPa 0,0 l/m 8,0 km/h (2 Bft) NO 46 0 min 0,000 mm 0,0 UV-I 0 W/m 9,5 C 9,2 C 11,3 km/h (2 Bft) 97,96 %
15.10.2016 04:34 10,3 C 95 % 1006,4 hPa 0,0 l/m 7,2 km/h (2 Bft) O-NO 70 0 min 0,000 mm 0,0 UV-I 0 W/m 9,5 C 9,7 C 11,3 km/h (2 Bft) 97,22 %
15.10.2016 04:36 10,4 C 94 % 1006,3 hPa 0,0 l/m 5,7 km/h (1 Bft) O-NO 78 0 min 0,000 mm 0,0 UV-I 0 W/m 9,5 C 10,4 C 8,0 km/h (2 Bft) 100,00 %
15.10.2016 04:38 10,4 C 94 % 1006,3 hPa 0,0 l/m 7,2 km/h (2 Bft) O-NO 65 0 min 0,000 mm 0,0 UV-I 0 W/m 9,5 C 9,8 C 9,7 km/h (2 Bft) 95,74 %
15.10.2016 04:40 10,4 C 94 % 1006,2 hPa 0,0 l/m 6,6 km/h (2 Bft) O 82 0 min 0,000 mm 0,0 UV-I 0 W/m 9,5 C 10,3 C 9,7 km/h (2 Bft) 97,87 %
15.10.2016 04:42 10,4 C 94 % 1006,3 hPa 0,0 l/m 4,7 km/h (1 Bft) NO 42 0 min 0,000 mm 0,0 UV-I 0 W/m 9,5 C 10,4 C 8,0 km/h (2 Bft) 98,11 %
15.10.2016 04:44 10,4 C 94 % 1006,2 hPa 0,0 l/m 6,7 km/h (2 Bft) O-NO 60 0 min 0,000 mm 0,0 UV-I 0 W/m 9,5 C 10,2 C 14,5 km/h (3 Bft) 97,37 %
15.10.2016 04:46 10,4 C 94 % 1006,2 hPa 0,0 l/m 8,1 km/h (2 Bft) O-NO 59 0 min 0,000 mm 0,0 UV-I 0 W/m 9,5 C 9,2 C 12,9 km/h (3 Bft) 98,00 %
15.10.2016 04:48 10,4 C 94 % 1006,1 hPa 0,0 l/m 8,0 km/h (2 Bft) NO 50 0 min 0,000 mm 0,0 UV-I 0 W/m 9,5 C 9,3 C 12,9 km/h (3 Bft) 97,87 %
15.10.2016 04:50 10,4 C 94 % 1006,1 hPa 0,0 l/m 5,8 km/h (2 Bft) O-NO 57 0 min 0,000 mm 0,0 UV-I 0 W/m 9,5 C 10,4 C 8,0 km/h (2 Bft) 95,74 %
15.10.2016 04:52 10,4 C 94 % 1006,0 hPa 0,0 l/m 5,9 km/h (2 Bft) NO 54 0 min 0,000 mm 0,0 UV-I 0 W/m 9,5 C 10,4 C 8,0 km/h (2 Bft) 95,74 %
15.10.2016 04:54 10,4 C 94 % 1006,0 hPa 0,0 l/m 7,6 km/h (2 Bft) N-NO 28 0 min 0,000 mm 0,0 UV-I 0 W/m 9,5 C 9,5 C 9,7 km/h (2 Bft) 94,00 %
15.10.2016 04:56 10,3 C 94 % 1005,9 hPa 0,0 l/m 6,2 km/h (2 Bft) NO 35 0 min 0,000 mm 0,0 UV-I 0 W/m 9,4 C 10,3 C 9,7 km/h (2 Bft) 97,56 %
15.10.2016 04:58 10,3 C 94 % 1006,0 hPa 0,0 l/m 5,7 km/h (1 Bft) NO 41 0 min 0,000 mm 0,0 UV-I 0 W/m 9,4 C 10,3 C 9,7 km/h (2 Bft) 95,74 %
15.10.2016 05:00 10,3 C 94 % 1006,3 hPa 0,0 l/m 3,4 km/h (1 Bft) NO 34 0 min 0,000 mm 0,0 UV-I 0 W/m 9,4 C 10,3 C 9,7 km/h (2 Bft) 97,87 %
15.10.2016 05:02 10,3 C 94 % 1006,6 hPa 0,0 l/m 3,2 km/h (1 Bft) W 264 0 min 0,000 mm 0,0 UV-I 0 W/m 9,4 C 10,3 C 6,4 km/h (2 Bft) 97,87 %
15.10.2016 05:04 10,2 C 94 % 1006,6 hPa 0,0 l/m 6,1 km/h (2 Bft) W 277 0 min 0,000 mm 0,0 UV-I 0 W/m 9,3 C 10,2 C 9,7 km/h (2 Bft) 97,87 %
15.10.2016 05:06 10,2 C 94 % 1006,6 hPa 0,0 l/m 2,1 km/h (1 Bft) W-SW 254 0 min 0,000 mm 0,0 UV-I 0 W/m 9,3 C 10,2 C 4,8 km/h (1 Bft) 97,92 %
15.10.2016 05:08 10,2 C 95 % 1006,4 hPa 0,0 l/m 3,9 km/h (1 Bft) O-NO 63 0 min 0,000 mm 0,0 UV-I 0 W/m 9,4 C 10,2 C 6,4 km/h (2 Bft) 95,92 %
15.10.2016 05:10 10,2 C 95 % 1006,4 hPa 0,0 l/m 3,2 km/h (1 Bft) N-NO 32 0 min 0,000 mm 0,0 UV-I 0 W/m 9,4 C 10,2 C 4,8 km/h (1 Bft) 95,24 %
15.10.2016 05:12 10,2 C 95 % 1006,3 hPa 0,0 l/m 1,9 km/h (1 Bft) N-NO 32 0 min 0,000 mm 0,0 UV-I 0 W/m 9,4 C 10,2 C 4,8 km/h (1 Bft) 96,00 %
15.10.2016 05:14 10,1 C 95 % 1006,1 hPa 0,0 l/m 0,7 km/h (0 Bft) N-NO 24 0 min 0,000 mm 0,0 UV-I 0 W/m 9,3 C 10,1 C 3,2 km/h (1 Bft) 97,73 %
15.10.2016 05:16 10,1 C 95 % 1006,1 hPa 0,0 l/m 2,3 km/h (1 Bft) N-NW 327 0 min 0,000 mm 0,0 UV-I 0 W/m 9,3 C 10,1 C 6,4 km/h (2 Bft) 100,00 %
15.10.2016 05:18 10,1 C 95 % 1006,1 hPa 0,0 l/m 2,5 km/h (1 Bft) NW 323 0 min 0,000 mm 0,0 UV-I 0 W/m 9,3 C 10,1 C 4,8 km/h (1 Bft) 100,00 %
15.10.2016 05:20 10,1 C 95 % 1006,2 hPa 0,0 l/m 2,0 km/h (1 Bft) N-NW 336 0 min 0,000 mm 0,0 UV-I 0 W/m 9,3 C 10,1 C 3,2 km/h (1 Bft) 100,00 %
15.10.2016 05:22 10,1 C 95 % 1006,1 hPa 0,0 l/m 3,0 km/h (1 Bft) N-NO 17 0 min 0,000 mm 0,0 UV-I 0 W/m 9,3 C 10,1 C 4,8 km/h (1 Bft) 100,00 %
15.10.2016 05:24 10,1 C 95 % 1006,1 hPa 0,0 l/m 6,5 km/h (2 Bft) N-NO 15 0 min 0,000 mm 0,0 UV-I 0 W/m 9,3 C 10,1 C 12,9 km/h (3 Bft) 92,31 %
15.10.2016 05:26 10,1 C 95 % 1006,0 hPa 0,0 l/m 10,9 km/h (2 Bft) N-NO 24 0 min 0,000 mm 0,0 UV-I 0 W/m 9,3 C 7,2 C 17,7 km/h (3 Bft) 98,65 %
15.10.2016 05:28 10,1 C 95 % 1005,9 hPa 0,0 l/m 9,9 km/h (2 Bft) N-NO 25 0 min 0,000 mm 0,0 UV-I 0 W/m 9,3 C 7,8 C 14,5 km/h (3 Bft) 100,00 %
15.10.2016 05:30 10,2 C 95 % 1005,8 hPa 0,0 l/m 10,4 km/h (2 Bft) N-NO 23 0 min 0,000 mm 0,0 UV-I 0 W/m 9,4 C 7,6 C 14,5 km/h (3 Bft) 97,87 %
15.10.2016 05:32 10,2 C 95 % 1005,8 hPa 0,0 l/m 9,9 km/h (2 Bft) N-NO 26 0 min 0,000 mm 0,0 UV-I 0 W/m 9,4 C 7,9 C 12,9 km/h (3 Bft) 100,00 %
15.10.2016 05:34 10,2 C 95 % 1005,8 hPa 0,0 l/m 10,0 km/h (2 Bft) N-NO 32 0 min 0,000 mm 0,0 UV-I 0 W/m 9,4 C 7,8 C 14,5 km/h (3 Bft) 100,00 %
15.10.2016 05:36 10,2 C 95 % 1005,9 hPa 0,0 l/m 5,1 km/h (1 Bft) N-NO 31 0 min 0,000 mm 0,0 UV-I 0 W/m 9,4 C 10,2 C 12,9 km/h (3 Bft) 100,00 %
15.10.2016 05:38 10,2 C 95 % 1006,2 hPa 0,0 l/m 1,6 km/h (1 Bft) N 11 0 min 0,000 mm 0,0 UV-I 0 W/m 9,4 C 10,2 C 3,2 km/h (1 Bft) 100,00 %
15.10.2016 05:40 10,2 C 95 % 1006,4 hPa 0,0 l/m 2,1 km/h (1 Bft) N-NW 342 0 min 0,000 mm 0,0 UV-I 0 W/m 9,4 C 10,2 C 4,8 km/h (1 Bft) 100,00 %
15.10.2016 05:42 10,2 C 95 % 1006,2 hPa 0,0 l/m 1,6 km/h (1 Bft) N 5 0 min 0,000 mm 0,0 UV-I 0 W/m 9,4 C 10,2 C 4,8 km/h (1 Bft) 100,00 %
15.10.2016 05:44 10,2 C 94 % 1006,2 hPa 0,0 l/m 1,8 km/h (1 Bft) N-NO 12 0 min 0,000 mm 0,0 UV-I 0 W/m 9,3 C 10,2 C 4,8 km/h (1 Bft) 100,00 %
15.10.2016 05:46 10,1 C 94 % 1006,3 hPa 0,0 l/m 1,3 km/h (1 Bft) NO 36 0 min 0,000 mm 0,0 UV-I 0 W/m 9,2 C 10,1 C 3,2 km/h (1 Bft) 96,00 %
15.10.2016 05:48 10,1 C 95 % 1006,4 hPa 0,0 l/m 0,5 km/h (0 Bft) N 11 0 min 0,000 mm 0,0 UV-I 0 W/m 9,3 C 10,1 C 1,6 km/h (1 Bft) 100,00 %
15.10.2016 05:50 10,1 C 95 % 1006,6 hPa 0,0 l/m 0,1 km/h (0 Bft) N 9 0 min 0,000 mm 0,0 UV-I 0 W/m 9,3 C 10,1 C 1,6 km/h (1 Bft) 98,00 %
15.10.2016 05:52 10,1 C 95 % 1006,5 hPa 0,0 l/m 1,1 km/h (1 Bft) N 9 0 min 0,000 mm 0,0 UV-I 0 W/m 9,3 C 10,1 C 3,2 km/h (1 Bft) 100,00 %
15.10.2016 05:54 10,0 C 95 % 1006,6 hPa 0,0 l/m 1,2 km/h (1 Bft) N-NO 15 0 min 0,000 mm 0,0 UV-I 0 W/m 9,2 C 10,0 C 4,8 km/h (1 Bft) 100,00 %
15.10.2016 05:56 10,1 C 95 % 1006,6 hPa 0,0 l/m 1,2 km/h (1 Bft) N-NO 15 0 min 0,000 mm 0,0 UV-I 0 W/m 9,3 C 10,1 C 3,2 km/h (1 Bft) 98,00 %
15.10.2016 05:58 10,1 C 95 % 1006,5 hPa 0,0 l/m 2,7 km/h (1 Bft) N-NO 15 0 min 0,000 mm 0,0 UV-I 0 W/m 9,3 C 10,1 C 4,8 km/h (1 Bft) 97,56 %
15.10.2016 06:00 10,1 C 95 % 1006,5 hPa 0,0 l/m 2,7 km/h (1 Bft) N-NO 15 0 min 0,000 mm 0,0 UV-I 0 W/m 9,3 C 10,1 C 4,8 km/h (1 Bft) 100,00 %
15.10.2016 06:02 10,1 C 95 % 1006,4 hPa 0,0 l/m 3,9 km/h (1 Bft) N 9 0 min 0,000 mm 0,0 UV-I 0 W/m 9,3 C 10,1 C 8,0 km/h (2 Bft) 97,87 %
15.10.2016 06:04 10,1 C 95 % 1006,5 hPa 0,0 l/m 0,3 km/h (0 Bft) N 9 0 min 0,000 mm 0,0 UV-I 0 W/m 9,3 C 10,1 C 1,6 km/h (1 Bft) 100,00 %
15.10.2016 06:06 10,1 C 95 % 1006,5 hPa 0,0 l/m 2,1 km/h (1 Bft) NW 311 0 min 0,000 mm 0,0 UV-I 0 W/m 9,3 C 10,1 C 3,2 km/h (1 Bft) 100,00 %
15.10.2016 06:08 10,1 C 95 % 1006,5 hPa 0,0 l/m 0,4 km/h (0 Bft) NW 313 0 min 0,000 mm 0,0 UV-I 0 W/m 9,3 C 10,1 C 1,6 km/h (1 Bft) 95,74 %
15.10.2016 06:10 9,9 C 95 % 1006,5 hPa 0,0 l/m 0,4 km/h (0 Bft) N-NW 331 0 min 0,000 mm 0,0 UV-I 0 W/m 9,1 C 9,9 C 1,6 km/h (1 Bft) 100,00 %
15.10.2016 06:12 9,9 C 95 % 1006,7 hPa 0,0 l/m 0,8 km/h (0 Bft) N-NW 346 0 min 0,000 mm 0,0 UV-I 0 W/m 9,1 C 9,9 C 3,2 km/h (1 Bft) 100,00 %
15.10.2016 06:14 9,9 C 95 % 1006,9 hPa 0,0 l/m 1,3 km/h (1 Bft) N-NW 336 0 min 0,000 mm 0,0 UV-I 0 W/m 9,1 C 9,9 C 4,8 km/h (1 Bft) 100,00 %
15.10.2016 06:16 9,9 C 95 % 1006,9 hPa 0,0 l/m 3,5 km/h (1 Bft) W-NW 293 0 min 0,000 mm 0,0 UV-I 0 W/m 9,1 C 9,9 C 6,4 km/h (2 Bft) 97,37 %
15.10.2016 06:18 9,8 C 95 % 1006,9 hPa 0,0 l/m 3,2 km/h (1 Bft) W-NW 288 0 min 0,000 mm 0,0 UV-I 0 W/m 9,0 C 9,8 C 4,8 km/h (1 Bft) 100,00 %
15.10.2016 06:20 9,8 C 95 % 1006,9 hPa 0,0 l/m 2,6 km/h (1 Bft) W-NW 288 0 min 0,000 mm 0,0 UV-I 0 W/m 9,0 C 9,8 C 4,8 km/h (1 Bft) 100,00 %
15.10.2016 06:22 9,8 C 95 % 1006,9 hPa 0,0 l/m 1,6 km/h (1 Bft) W-NW 288 0 min 0,000 mm 0,0 UV-I 0 W/m 9,0 C 9,8 C 3,2 km/h (1 Bft) 100,00 %
15.10.2016 06:24 9,8 C 95 % 1006,9 hPa 0,0 l/m 2,8 km/h (1 Bft) W-NW 288 0 min 0,000 mm 0,0 UV-I 0 W/m 9,0 C 9,8 C 4,8 km/h (1 Bft) 100,00 %
15.10.2016 06:26 9,8 C 95 % 1007,1 hPa 0,0 l/m 3,4 km/h (1 Bft) W-NW 288 0 min 0,000 mm 0,0 UV-I 0 W/m 9,0 C 9,8 C 4,8 km/h (1 Bft) 100,00 %
15.10.2016 06:28 9,7 C 95 % 1007,3 hPa 0,0 l/m 3,7 km/h (1 Bft) W-NW 288 0 min 0,000 mm 0,0 UV-I 0 W/m 8,9 C 9,7 C 4,8 km/h (1 Bft) 100,00 %
15.10.2016 06:30 9,7 C 95 % 1007,4 hPa 0,0 l/m 4,1 km/h (1 Bft) SW 236 0 min 0,000 mm 0,0 UV-I 0 W/m 8,9 C 9,7 C 4,8 km/h (1 Bft) 97,87 %
15.10.2016 06:32 9,7 C 96 % 1007,4 hPa 0,0 l/m 3,5 km/h (1 Bft) SW 236 0 min 0,000 mm 0,0 UV-I 0 W/m 9,1 C 9,7 C 4,8 km/h (1 Bft) 100,00 %
15.10.2016 06:34 9,7 C 95 % 1007,5 hPa 0,0 l/m 3,1 km/h (1 Bft) S 190 0 min 0,000 mm 0,0 UV-I 0 W/m 8,9 C 9,7 C 4,8 km/h (1 Bft) 100,00 %
15.10.2016 06:36 9,7 C 96 % 1007,5 hPa 0,0 l/m 5,8 km/h (2 Bft) S-SW 213 0 min 0,000 mm 0,0 UV-I 0 W/m 9,1 C 9,7 C 8,0 km/h (2 Bft) 100,00 %
15.10.2016 06:38 9,7 C 96 % 1007,6 hPa 0,0 l/m 6,1 km/h (2 Bft) S-SW 203 0 min 0,000 mm 0,0 UV-I 0 W/m 9,1 C 9,7 C 8,0 km/h (2 Bft) 100,00 %
15.10.2016 06:40 9,7 C 96 % 1007,6 hPa 0,0 l/m 6,3 km/h (2 Bft) S-SW 207 0 min 0,000 mm 0,0 UV-I 0 W/m 9,1 C 9,7 C 9,7 km/h (2 Bft) 100,00 %
15.10.2016 06:42 9,7 C 96 % 1007,7 hPa 0,0 l/m 7,6 km/h (2 Bft) SW 221 0 min 0,000 mm 0,0 UV-I 0 W/m 9,1 C 8,8 C 12,9 km/h (3 Bft) 98,11 %
15.10.2016 06:44 9,7 C 96 % 1007,6 hPa 0,0 l/m 5,2 km/h (1 Bft) SW 229 0 min 0,000 mm 0,0 UV-I 0 W/m 9,1 C 9,7 C 8,0 km/h (2 Bft) 94,74 %
15.10.2016 06:46 9,7 C 96 % 1007,6 hPa 0,0 l/m 2,4 km/h (1 Bft) S-SW 209 0 min 0,000 mm 0,0 UV-I 0 W/m 9,1 C 9,7 C 3,2 km/h (1 Bft) 95,74 %
15.10.2016 06:48 9,6 C 96 % 1007,7 hPa 0,0 l/m 2,6 km/h (1 Bft) S-SW 209 0 min 0,000 mm 0,0 UV-I 0 W/m 9,0 C 9,6 C 6,4 km/h (2 Bft) 98,00 %
15.10.2016 06:50 9,6 C 96 % 1007,8 hPa 0,0 l/m 4,1 km/h (1 Bft) S-SW 209 0 min 0,000 mm 0,0 UV-I 0 W/m 9,0 C 9,6 C 6,4 km/h (2 Bft) 98,00 %
15.10.2016 06:52 9,6 C 96 % 1007,8 hPa 0,0 l/m 3,7 km/h (1 Bft) S-SW 196 0 min 0,000 mm 0,0 UV-I 0 W/m 9,0 C 9,6 C 6,4 km/h (2 Bft) 96,00 %
15.10.2016 06:54 9,7 C 96 % 1007,9 hPa 0,0 l/m 4,1 km/h (1 Bft) S 188 0 min 0,000 mm 0,0 UV-I 0 W/m 9,1 C 9,7 C 8,0 km/h (2 Bft) 97,87 %
15.10.2016 06:56 9,6 C 96 % 1007,9 hPa 0,0 l/m 6,3 km/h (2 Bft) S-SW 210 0 min 0,000 mm 0,0 UV-I 0 W/m 9,0 C 9,6 C 8,0 km/h (2 Bft) 97,37 %
15.10.2016 06:58 9,6 C 96 % 1008,0 hPa 0,0 l/m 6,7 km/h (2 Bft) S-SW 203 0 min 0,000 mm 0,0 UV-I 0 W/m 9,0 C 9,4 C 8,0 km/h (2 Bft) 97,87 %
15.10.2016 07:00 9,6 C 96 % 1008,0 hPa 0,0 l/m 6,8 km/h (2 Bft) SW 217 0 min 0,000 mm 0,0 UV-I 0 W/m 9,0 C 9,3 C 9,7 km/h (2 Bft) 98,00 %
15.10.2016 07:02 9,6 C 96 % 1008,0 hPa 0,0 l/m 7,3 km/h (2 Bft) S-SW 202 0 min 0,000 mm 0,0 UV-I 0 W/m 9,0 C 8,9 C 11,3 km/h (2 Bft) 97,87 %
15.10.2016 07:04 9,6 C 96 % 1007,9 hPa 0,0 l/m 8,0 km/h (2 Bft) S-SW 198 0 min 0,000 mm 0,0 UV-I 0 W/m 9,0 C 8,4 C 9,7 km/h (2 Bft) 97,62 %
15.10.2016 07:06 9,6 C 96 % 1007,9 hPa 0,0 l/m 4,4 km/h (1 Bft) S-SO 160 0 min 0,000 mm 0,0 UV-I 0 W/m 9,0 C 9,6 C 9,7 km/h (2 Bft) 98,08 %
15.10.2016 07:08 9,6 C 96 % 1008,0 hPa 0,0 l/m 5,9 km/h (2 Bft) S-SW 194 0 min 0,000 mm 0,0 UV-I 0 W/m 9,0 C 9,6 C 11,3 km/h (2 Bft) 97,92 %
15.10.2016 07:10 9,5 C 96 % 1008,2 hPa 0,0 l/m 11,4 km/h (2 Bft) SW 229 0 min 0,000 mm 0,0 UV-I 0 W/m 8,9 C 6,3 C 17,7 km/h (3 Bft) 97,37 %
15.10.2016 07:12 9,5 C 96 % 1008,3 hPa 0,0 l/m 10,3 km/h (2 Bft) S 189 0 min 0,000 mm 0,0 UV-I 0 W/m 8,9 C 6,9 C 14,5 km/h (3 Bft) 94,34 %
15.10.2016 07:14 9,5 C 96 % 1008,3 hPa 0,0 l/m 8,7 km/h (2 Bft) S 169 0 min 0,000 mm 0,0 UV-I 0 W/m 8,9 C 7,9 C 16,1 km/h (3 Bft) 98,11 %
15.10.2016 07:16 9,4 C 96 % 1008,4 hPa 0,0 l/m 6,3 km/h (2 Bft) S-SW 200 0 min 0,000 mm 0,0 UV-I 0 W/m 8,8 C 9,4 C 11,3 km/h (2 Bft) 97,87 %
15.10.2016 07:18 9,4 C 96 % 1008,4 hPa 0,0 l/m 7,4 km/h (2 Bft) S-SW 192 0 min 0,000 mm 0,0 UV-I 0 W/m 8,8 C 8,7 C 9,7 km/h (2 Bft) 100,00 %
15.10.2016 07:20 9,4 C 96 % 1008,5 hPa 0,0 l/m 7,0 km/h (2 Bft) S-SW 195 0 min 0,000 mm 0,0 UV-I 0 W/m 8,8 C 9,0 C 9,7 km/h (2 Bft) 97,37 %
15.10.2016 07:22 9,4 C 96 % 1008,5 hPa 0,0 l/m 7,3 km/h (2 Bft) S-SW 205 0 min 0,000 mm 0,0 UV-I 0 W/m 8,8 C 8,7 C 9,7 km/h (2 Bft) 98,11 %
15.10.2016 07:24 9,4 C 96 % 1008,5 hPa 0,0 l/m 6,6 km/h (2 Bft) S-SW 202 0 min 0,000 mm 0,0 UV-I 0 W/m 8,8 C 9,3 C 9,7 km/h (2 Bft) 100,00 %
15.10.2016 07:26 9,4 C 96 % 1008,6 hPa 0,0 l/m 6,4 km/h (2 Bft) S 191 0 min 0,000 mm 0,0 UV-I 0 W/m 8,8 C 9,4 C 8,0 km/h (2 Bft) 100,00 %
15.10.2016 07:28 9,4 C 96 % 1008,6 hPa 0,0 l/m 6,0 km/h (2 Bft) S-SW 210 0 min 0,000 mm 0,0 UV-I 0 W/m 8,8 C 9,4 C 8,0 km/h (2 Bft) 96,00 %
15.10.2016 07:30 9,3 C 96 % 1008,7 hPa 0,0 l/m 6,4 km/h (2 Bft) S-SW 212 0 min 0,000 mm 0,0 UV-I 0 W/m 8,7 C 9,3 C 9,7 km/h (2 Bft) 100,00 %
15.10.2016 07:32 9,3 C 96 % 1008,7 hPa 0,0 l/m 8,4 km/h (2 Bft) S-SW 200 0 min 0,000 mm 0,0 UV-I 3 W/m 8,7 C 7,8 C 11,3 km/h (2 Bft) 100,00 %
15.10.2016 07:34 9,3 C 96 % 1008,7 hPa 0,0 l/m 7,6 km/h (2 Bft) S 169 0 min 0,000 mm 0,0 UV-I 5 W/m 8,7 C 8,4 C 11,3 km/h (2 Bft) 100,00 %
15.10.2016 07:36 9,3 C 96 % 1008,7 hPa 0,0 l/m 6,6 km/h (2 Bft) S-SW 198 0 min 0,000 mm 0,0 UV-I 5 W/m 8,7 C 9,2 C 9,7 km/h (2 Bft) 100,00 %
15.10.2016 07:38 9,3 C 96 % 1008,8 hPa 0,0 l/m 6,0 km/h (2 Bft) S 169 0 min 0,000 mm 0,0 UV-I 7 W/m 8,7 C 9,3 C 9,7 km/h (2 Bft) 100,00 %
15.10.2016 07:40 9,3 C 96 % 1008,8 hPa 0,0 l/m 6,9 km/h (2 Bft) S-SW 206 0 min 0,000 mm 0,0 UV-I 8 W/m 8,7 C 8,9 C 11,3 km/h (2 Bft) 100,00 %
15.10.2016 07:42 9,3 C 96 % 1009,0 hPa 0,0 l/m 6,4 km/h (2 Bft) S-SW 196 0 min 0,000 mm 0,0 UV-I 9 W/m 8,7 C 9,3 C 9,7 km/h (2 Bft) 100,00 %
15.10.2016 07:44 9,3 C 96 % 1009,0 hPa 0,0 l/m 6,9 km/h (2 Bft) S-SO 163 0 min 0,000 mm 0,0 UV-I 11 W/m 8,7 C 8,9 C 12,9 km/h (3 Bft) 100,00 %
15.10.2016 07:46 9,3 C 96 % 1009,1 hPa 0,0 l/m 5,3 km/h (1 Bft) S 188 0 min 0,000 mm 0,0 UV-I 12 W/m 8,7 C 9,3 C 12,9 km/h (3 Bft) 100,00 %
15.10.2016 07:48 9,3 C 96 % 1009,1 hPa 0,0 l/m 5,3 km/h (1 Bft) S-SW 196 0 min 0,000 mm 0,0 UV-I 13 W/m 8,7 C 9,3 C 9,7 km/h (2 Bft) 100,00 %
15.10.2016 07:50 9,3 C 96 % 1009,1 hPa 0,0 l/m 6,6 km/h (2 Bft) S-SW 208 0 min 0,000 mm 0,0 UV-I 15 W/m 8,7 C 9,2 C 9,7 km/h (2 Bft) 100,00 %
15.10.2016 07:52 9,3 C 96 % 1009,2 hPa 0,0 l/m 5,6 km/h (1 Bft) S-SW 213 0 min 0,000 mm 0,0 UV-I 18 W/m 8,7 C 9,3 C 9,7 km/h (2 Bft) 100,00 %
15.10.2016 07:54 9,3 C 96 % 1009,2 hPa 0,0 l/m 4,6 km/h (1 Bft) S-SW 197 0 min 0,000 mm 0,0 UV-I 19 W/m 8,7 C 9,3 C 9,7 km/h (2 Bft) 97,37 %
15.10.2016 07:56 9,3 C 96 % 1009,2 hPa 0,0 l/m 5,3 km/h (1 Bft) S 171 0 min 0,000 mm 0,0 UV-I 23 W/m 8,7 C 9,3 C 9,7 km/h (2 Bft) 100,00 %
15.10.2016 07:58 9,3 C 96 % 1009,2 hPa 0,0 l/m 5,0 km/h (1 Bft) S 178 0 min 0,000 mm 0,0 UV-I 25 W/m 8,7 C 9,3 C 8,0 km/h (2 Bft) 100,00 %
15.10.2016 08:00 9,3 C 96 % 1009,2 hPa 0,0 l/m 5,6 km/h (1 Bft) S-SW 210 0 min 0,000 mm 0,0 UV-I 28 W/m 8,7 C 9,3 C 8,0 km/h (2 Bft) 100,00 %
15.10.2016 08:02 9,3 C 96 % 1009,3 hPa 0,0 l/m 4,8 km/h (1 Bft) SW 216 0 min 0,000 mm 0,0 UV-I 32 W/m 8,7 C 9,3 C 8,0 km/h (2 Bft) 100,00 %
15.10.2016 08:04 9,3 C 96 % 1009,4 hPa 0,0 l/m 3,1 km/h (1 Bft) SW 220 0 min 0,000 mm 0,0 UV-I 34 W/m 8,7 C 9,3 C 4,8 km/h (1 Bft) 100,00 %
15.10.2016 08:06 9,3 C 96 % 1009,4 hPa 0,0 l/m 2,6 km/h (1 Bft) SW 220 0 min 0,000 mm 0,0 UV-I 38 W/m 8,7 C 9,3 C 4,8 km/h (1 Bft) 100,00 %
15.10.2016 08:08 9,3 C 96 % 1009,4 hPa 0,0 l/m 2,5 km/h (1 Bft) SW 220 0 min 0,000 mm 0,0 UV-I 40 W/m 8,7 C 9,3 C 4,8 km/h (1 Bft) 100,00 %
15.10.2016 08:10 9,3 C 96 % 1009,5 hPa 0,0 l/m 1,9 km/h (1 Bft) SW 220 0 min 0,000 mm 0,0 UV-I 42 W/m 8,7 C 9,3 C 3,2 km/h (1 Bft) 100,00 %
15.10.2016 08:12 9,3 C 96 % 1009,6 hPa 0,0 l/m 2,3 km/h (1 Bft) SW 220 0 min 0,000 mm 0,0 UV-I 43 W/m 8,7 C 9,3 C 3,2 km/h (1 Bft) 100,00 %
15.10.2016 08:14 9,3 C 96 % 1009,6 hPa 0,0 l/m 3,4 km/h (1 Bft) SW 236 0 min 0,000 mm 0,0 UV-I 44 W/m 8,7 C 9,3 C 4,8 km/h (1 Bft) 100,00 %
15.10.2016 08:16 9,3 C 96 % 1009,7 hPa 0,0 l/m 3,5 km/h (1 Bft) SW 236 0 min 0,000 mm 0,0 UV-I 44 W/m 8,7 C 9,3 C 4,8 km/h (1 Bft) 100,00 %
15.10.2016 08:18 9,3 C 96 % 1009,7 hPa 0,0 l/m 3,2 km/h (1 Bft) SW 236 0 min 0,000 mm 0,0 UV-I 44 W/m 8,7 C 9,3 C 4,8 km/h (1 Bft) 100,00 %
15.10.2016 08:20 9,3 C 96 % 1009,7 hPa 0,0 l/m 1,9 km/h (1 Bft) SW 236 0 min 0,000 mm 0,0 UV-I 44 W/m 8,7 C 9,3 C 3,2 km/h (1 Bft) 100,00 %
15.10.2016 08:22 9,3 C 96 % 1009,8 hPa 0,0 l/m 1,4 km/h (1 Bft) SW 236 0 min 0,000 mm 0,0 UV-I 44 W/m 8,7 C 9,3 C 3,2 km/h (1 Bft) 100,00 %
15.10.2016 08:24 9,3 C 96 % 1009,9 hPa 0,0 l/m 1,2 km/h (1 Bft) SW 236 0 min 0,000 mm 0,0 UV-I 44 W/m 8,7 C 9,3 C 1,6 km/h (1 Bft) 100,00 %
15.10.2016 08:26 9,3 C 96 % 1010,0 hPa 0,0 l/m 1,8 km/h (1 Bft) SW 236 0 min 0,000 mm 0,0 UV-I 43 W/m 8,7 C 9,3 C 3,2 km/h (1 Bft) 100,00 %
15.10.2016 08:28 9,3 C 96 % 1010,0 hPa 0,0 l/m 2,7 km/h (1 Bft) SW 236 0 min 0,000 mm 0,0 UV-I 41 W/m 8,7 C 9,3 C 3,2 km/h (1 Bft) 100,00 %
15.10.2016 08:30 9,3 C 96 % 1010,1 hPa 0,0 l/m 3,1 km/h (1 Bft) SW 236 0 min 0,000 mm 0,0 UV-I 40 W/m 8,7 C 9,3 C 4,8 km/h (1 Bft) 100,00 %
15.10.2016 08:32 9,3 C 96 % 1010,1 hPa 0,0 l/m 2,1 km/h (1 Bft) S-SW 205 0 min 0,000 mm 0,0 UV-I 40 W/m 8,7 C 9,3 C 4,8 km/h (1 Bft) 100,00 %
15.10.2016 08:34 9,2 C 96 % 1010,1 hPa 0,0 l/m 3,5 km/h (1 Bft) S-SW 209 0 min 0,000 mm 0,0 UV-I 40 W/m 8,6 C 9,2 C 4,8 km/h (1 Bft) 100,00 %
15.10.2016 08:36 9,2 C 96 % 1010,2 hPa 0,0 l/m 4,1 km/h (1 Bft) SW 221 0 min 0,000 mm 0,0 UV-I 41 W/m 8,6 C 9,2 C 6,4 km/h (2 Bft) 100,00 %
15.10.2016 08:38 9,2 C 96 % 1010,2 hPa 0,0 l/m 5,4 km/h (1 Bft) SW 223 0 min 0,000 mm 0,0 UV-I 43 W/m 8,6 C 9,2 C 8,0 km/h (2 Bft) 97,87 %
15.10.2016 08:40 9,2 C 96 % 1010,2 hPa 0,0 l/m 4,4 km/h (1 Bft) SW 225 0 min 0,000 mm 0,0 UV-I 45 W/m 8,6 C 9,2 C 6,4 km/h (2 Bft) 98,00 %
15.10.2016 08:42 9,2 C 96 % 1010,2 hPa 0,0 l/m 5,1 km/h (1 Bft) SW 220 0 min 0,000 mm 0,0 UV-I 47 W/m 8,6 C 9,2 C 8,0 km/h (2 Bft) 100,00 %
15.10.2016 08:44 9,2 C 96 % 1010,3 hPa 0,0 l/m 6,2 km/h (2 Bft) S-SW 193 0 min 0,000 mm 0,0 UV-I 52 W/m 8,6 C 9,2 C 8,0 km/h (2 Bft) 100,00 %
15.10.2016 08:46 9,2 C 96 % 1010,3 hPa 0,0 l/m 5,8 km/h (2 Bft) S-SW 195 0 min 0,000 mm 0,0 UV-I 57 W/m 8,6 C 9,2 C 8,0 km/h (2 Bft) 97,14 %
15.10.2016 08:48 9,2 C 96 % 1010,4 hPa 0,0 l/m 6,5 km/h (2 Bft) S-SW 199 0 min 0,000 mm 0,0 UV-I 67 W/m 8,6 C 9,2 C 9,7 km/h (2 Bft) 98,00 %
15.10.2016 08:50 9,2 C 96 % 1010,4 hPa 0,0 l/m 7,9 km/h (2 Bft) SW 221 0 min 0,000 mm 0,0 UV-I 85 W/m 8,6 C 8,1 C 12,9 km/h (3 Bft) 97,73 %
15.10.2016 08:52 9,3 C 97 % 1010,4 hPa 0,0 l/m 7,5 km/h (2 Bft) S 186 0 min 0,000 mm 0,0 UV-I 111 W/m 8,8 C 8,5 C 11,3 km/h (2 Bft) 98,11 %
15.10.2016 08:54 9,5 C 97 % 1010,4 hPa 0,0 l/m 8,1 km/h (2 Bft) S-SW 202 2 min 0,000 mm 0,0 UV-I 132 W/m 9,0 C 8,3 C 12,9 km/h (3 Bft) 97,37 %
15.10.2016 08:56 9,8 C 97 % 1010,5 hPa 0,0 l/m 9,0 km/h (2 Bft) SW 225 2 min 0,000 mm 0,0 UV-I 158 W/m 9,3 C 8,0 C 14,5 km/h (3 Bft) 96,61 %
15.10.2016 08:58 9,9 C 96 % 1010,4 hPa 0,0 l/m 8,7 km/h (2 Bft) S-SW 205 2 min 0,000 mm 0,0 UV-I 174 W/m 9,3 C 8,3 C 12,9 km/h (3 Bft) 97,37 %
15.10.2016 09:00 10,1 C 96 % 1010,5 hPa 0,0 l/m 9,0 km/h (2 Bft) SW 227 2 min 0,025 mm 0,0 UV-I 200 W/m 9,5 C 8,3 C 12,9 km/h (3 Bft) 98,11 %
15.10.2016 09:02 10,2 C 96 % 1010,5 hPa 0,0 l/m 6,9 km/h (2 Bft) W 271 2 min 0,000 mm 0,0 UV-I 199 W/m 9,6 C 9,8 C 11,3 km/h (2 Bft) 96,00 %
15.10.2016 09:04 10,3 C 95 % 1010,5 hPa 0,0 l/m 5,4 km/h (1 Bft) W-SW 255 2 min 0,000 mm 0,0 UV-I 189 W/m 9,5 C 10,3 C 11,3 km/h (2 Bft) 95,74 %
15.10.2016 09:06 10,5 C 95 % 1010,6 hPa 0,0 l/m 5,5 km/h (1 Bft) W-SW 246 2 min 0,000 mm 0,0 UV-I 187 W/m 9,7 C 10,5 C 8,0 km/h (2 Bft) 95,24 %
15.10.2016 09:08 10,7 C 95 % 1010,7 hPa 0,0 l/m 6,9 km/h (2 Bft) W-SW 251 2 min 0,000 mm 0,0 UV-I 159 W/m 9,9 C 10,4 C 11,3 km/h (2 Bft) 97,73 %
15.10.2016 09:10 10,8 C 95 % 1010,8 hPa 0,0 l/m 7,2 km/h (2 Bft) W-SW 238 0 min 0,000 mm 0,0 UV-I 128 W/m 10,0 C 10,2 C 11,3 km/h (2 Bft) 96,23 %
15.10.2016 09:12 10,8 C 94 % 1010,7 hPa 0,0 l/m 8,0 km/h (2 Bft) W 259 0 min 0,000 mm 0,0 UV-I 113 W/m 9,9 C 9,7 C 11,3 km/h (2 Bft) 95,74 %
15.10.2016 09:14 10,8 C 94 % 1010,7 hPa 0,0 l/m 6,8 km/h (2 Bft) SW 236 0 min 0,000 mm 0,0 UV-I 95 W/m 9,9 C 10,5 C 11,3 km/h (2 Bft) 95,74 %
15.10.2016 09:16 10,8 C 94 % 1010,8 hPa 0,0 l/m 6,5 km/h (2 Bft) SW 233 0 min 0,000 mm 0,0 UV-I 88 W/m 9,9 C 10,8 C 9,7 km/h (2 Bft) 97,37 %
15.10.2016 09:18 10,8 C 93 % 1010,8 hPa 0,0 l/m 6,0 km/h (2 Bft) W-SW 256 0 min 0,000 mm 0,0 UV-I 83 W/m 9,7 C 10,8 C 11,3 km/h (2 Bft) 98,00 %
15.10.2016 09:20 10,7 C 94 % 1010,9 hPa 0,0 l/m 6,9 km/h (2 Bft) W-SW 243 0 min 0,000 mm 0,0 UV-I 83 W/m 9,8 C 10,4 C 11,3 km/h (2 Bft) 100,00 %
15.10.2016 09:22 10,7 C 94 % 1010,9 hPa 0,0 l/m 6,4 km/h (2 Bft) SW 225 0 min 0,000 mm 0,0 UV-I 84 W/m 9,8 C 10,7 C 8,0 km/h (2 Bft) 100,00 %
15.10.2016 09:24 10,7 C 94 % 1011,0 hPa 0,0 l/m 7,2 km/h (2 Bft) W-SW 252 0 min 0,000 mm 0,0 UV-I 103 W/m 9,8 C 10,1 C 11,3 km/h (2 Bft) 96,15 %
15.10.2016 09:26 10,7 C 94 % 1011,0 hPa 0,0 l/m 4,9 km/h (1 Bft) S-SW 211 0 min 0,000 mm 0,0 UV-I 112 W/m 9,8 C 10,7 C 8,0 km/h (2 Bft) 98,21 %
15.10.2016 09:28 10,7 C 94 % 1011,1 hPa 0,0 l/m 3,7 km/h (1 Bft) W-SW 241 0 min 0,000 mm 0,0 UV-I 113 W/m 9,8 C 10,7 C 6,4 km/h (2 Bft) 98,11 %
15.10.2016 09:30 10,7 C 94 % 1011,2 hPa 0,0 l/m 4,0 km/h (1 Bft) W-SW 240 0 min 0,000 mm 0,0 UV-I 152 W/m 9,8 C 10,7 C 6,4 km/h (2 Bft) 100,00 %
15.10.2016 09:32 10,9 C 94 % 1011,2 hPa 0,0 l/m 4,5 km/h (1 Bft) SW 227 2 min 0,000 mm 0,4 UV-I 278 W/m 10,0 C 10,9 C 6,4 km/h (2 Bft) 100,00 %
15.10.2016 09:34 11,1 C 94 % 1011,3 hPa 0,0 l/m 4,5 km/h (1 Bft) S-SW 206 2 min 0,000 mm 0,5 UV-I 260 W/m 10,2 C 11,1 C 6,4 km/h (2 Bft) 100,00 %
15.10.2016 09:36 11,2 C 93 % 1011,3 hPa 0,0 l/m 5,3 km/h (1 Bft) S-SW 208 2 min 0,000 mm 0,5 UV-I 266 W/m 10,1 C 11,2 C 8,0 km/h (2 Bft) 97,56 %
15.10.2016 09:38 11,4 C 93 % 1011,4 hPa 0,0 l/m 3,0 km/h (1 Bft) S-SW 208 2 min 0,000 mm 0,5 UV-I 279 W/m 10,3 C 11,4 C 4,8 km/h (1 Bft) 98,11 %
15.10.2016 09:40 11,6 C 93 % 1011,4 hPa 0,0 l/m 3,2 km/h (1 Bft) S-SW 202 2 min 0,000 mm 0,6 UV-I 319 W/m 10,5 C 11,6 C 4,8 km/h (1 Bft) 100,00 %
15.10.2016 09:42 11,8 C 92 % 1011,5 hPa 0,0 l/m 4,7 km/h (1 Bft) SW 236 2 min 0,000 mm 0,6 UV-I 315 W/m 10,5 C 11,8 C 6,4 km/h (2 Bft) 100,00 %
15.10.2016 09:44 11,9 C 92 % 1011,4 hPa 0,0 l/m 0,8 km/h (0 Bft) SW 236 2 min 0,000 mm 0,6 UV-I 338 W/m 10,6 C 11,9 C 4,8 km/h (1 Bft) 100,00 %
15.10.2016 09:46 12,0 C 91 % 1011,5 hPa 0,0 l/m 3,2 km/h (1 Bft) SW 231 2 min 0,000 mm 0,7 UV-I 356 W/m 10,6 C 12,0 C 6,4 km/h (2 Bft) 95,92 %
15.10.2016 09:48 12,2 C 91 % 1011,5 hPa 0,0 l/m 1,7 km/h (1 Bft) SW 231 2 min 0,000 mm 0,7 UV-I 331 W/m 10,8 C 12,2 C 4,8 km/h (1 Bft) 100,00 %
15.10.2016 09:50 12,3 C 91 % 1011,5 hPa 0,0 l/m 2,9 km/h (1 Bft) S-SW 192 2 min 0,000 mm 0,7 UV-I 304 W/m 10,9 C 12,3 C 4,8 km/h (1 Bft) 100,00 %
15.10.2016 09:52 12,4 C 90 % 1011,5 hPa 0,0 l/m 4,6 km/h (1 Bft) S-SW 209 2 min 0,000 mm 0,7 UV-I 277 W/m 10,8 C 12,4 C 9,7 km/h (2 Bft) 100,00 %
15.10.2016 09:54 12,4 C 89 % 1011,5 hPa 0,0 l/m 3,9 km/h (1 Bft) S-SW 197 2 min 0,000 mm 0,7 UV-I 275 W/m 10,6 C 12,4 C 6,4 km/h (2 Bft) 100,00 %
15.10.2016 09:56 12,5 C 90 % 1011,6 hPa 0,0 l/m 2,8 km/h (1 Bft) W-SW 245 2 min 0,000 mm 0,7 UV-I 309 W/m 10,9 C 12,5 C 4,8 km/h (1 Bft) 100,00 %
15.10.2016 09:58 12,6 C 89 % 1011,5 hPa 0,0 l/m 5,7 km/h (1 Bft) W-SW 238 2 min 0,000 mm 0,8 UV-I 351 W/m 10,8 C 12,6 C 8,0 km/h (2 Bft) 100,00 %
15.10.2016 10:00 12,6 C 89 % 1011,6 hPa 0,0 l/m 4,3 km/h (1 Bft) W-SW 242 2 min 0,102 mm 0,8 UV-I 356 W/m 10,8 C 12,6 C 8,0 km/h (2 Bft) 100,00 %
15.10.2016 10:02 12,8 C 90 % 1011,6 hPa 0,0 l/m 5,1 km/h (1 Bft) W 260 2 min 0,000 mm 0,8 UV-I 361 W/m 11,2 C 12,8 C 11,3 km/h (2 Bft) 98,00 %
15.10.2016 10:04 12,9 C 89 % 1011,6 hPa 0,0 l/m 7,6 km/h (2 Bft) SW 233 2 min 0,000 mm 0,8 UV-I 362 W/m 11,1 C 12,1 C 11,3 km/h (2 Bft) 97,37 %
15.10.2016 10:06 13,1 C 88 % 1011,6 hPa 0,0 l/m 5,3 km/h (1 Bft) SW 235 2 min 0,000 mm 0,8 UV-I 342 W/m 11,2 C 13,1 C 8,0 km/h (2 Bft) 100,00 %
15.10.2016 10:08 13,2 C 88 % 1011,7 hPa 0,0 l/m 5,9 km/h (2 Bft) SW 231 2 min 0,000 mm 0,9 UV-I 359 W/m 11,3 C 13,2 C 9,7 km/h (2 Bft) 100,00 %
15.10.2016 10:10 13,2 C 88 % 1011,8 hPa 0,0 l/m 8,1 km/h (2 Bft) SW 227 2 min 0,000 mm 0,9 UV-I 372 W/m 11,3 C 12,2 C 14,5 km/h (3 Bft) 98,11 %
15.10.2016 10:12 13,3 C 86 % 1011,8 hPa 0,0 l/m 6,9 km/h (2 Bft) W-SW 245 2 min 0,000 mm 0,8 UV-I 257 W/m 11,0 C 13,0 C 11,3 km/h (2 Bft) 95,74 %
15.10.2016 10:14 13,3 C 86 % 1011,8 hPa 0,0 l/m 8,9 km/h (2 Bft) SW 229 2 min 0,000 mm 0,9 UV-I 285 W/m 11,0 C 11,8 C 14,5 km/h (3 Bft) 100,00 %
15.10.2016 10:16 13,4 C 87 % 1011,8 hPa 0,0 l/m 7,6 km/h (2 Bft) W-SW 240 2 min 0,000 mm 0,8 UV-I 298 W/m 11,3 C 12,7 C 14,5 km/h (3 Bft) 100,00 %
15.10.2016 10:18 13,4 C 86 % 1011,7 hPa 0,0 l/m 7,0 km/h (2 Bft) SW 227 2 min 0,000 mm 0,8 UV-I 229 W/m 11,1 C 13,0 C 12,9 km/h (3 Bft) 100,00 %
15.10.2016 10:20 13,4 C 86 % 1011,9 hPa 0,0 l/m 8,7 km/h (2 Bft) W-SW 250 2 min 0,000 mm 0,9 UV-I 332 W/m 11,1 C 12,0 C 14,5 km/h (3 Bft) 100,00 %
15.10.2016 10:22 13,5 C 86 % 1012,0 hPa 0,0 l/m 5,6 km/h (1 Bft) W-SW 246 2 min 0,000 mm 1,0 UV-I 328 W/m 11,2 C 13,5 C 11,3 km/h (2 Bft) 100,00 %
15.10.2016 10:24 13,7 C 87 % 1012,0 hPa 0,0 l/m 5,4 km/h (1 Bft) SW 224 2 min 0,000 mm 1,0 UV-I 338 W/m 11,6 C 13,7 C 11,3 km/h (2 Bft) 100,00 %
15.10.2016 10:26 13,8 C 86 % 1012,1 hPa 0,0 l/m 4,8 km/h (1 Bft) W 272 2 min 0,000 mm 1,0 UV-I 333 W/m 11,5 C 13,8 C 9,7 km/h (2 Bft) 100,00 %
15.10.2016 10:28 13,8 C 85 % 1012,1 hPa 0,0 l/m 4,3 km/h (1 Bft) S-SW 205 2 min 0,000 mm 1,0 UV-I 296 W/m 11,3 C 13,8 C 8,0 km/h (2 Bft) 100,00 %
15.10.2016 10:30 13,8 C 85 % 1012,1 hPa 0,0 l/m 4,2 km/h (1 Bft) W-SW 240 2 min 0,000 mm 1,1 UV-I 389 W/m 11,3 C 13,8 C 6,4 km/h (2 Bft) 98,11 %
15.10.2016 10:32 13,9 C 85 % 1012,2 hPa 0,0 l/m 4,3 km/h (1 Bft) SW 215 2 min 0,000 mm 1,1 UV-I 408 W/m 11,4 C 13,9 C 6,4 km/h (2 Bft) 97,87 %
15.10.2016 10:34 14,1 C 85 % 1012,2 hPa 0,0 l/m 4,7 km/h (1 Bft) S-SW 202 2 min 0,000 mm 1,2 UV-I 409 W/m 11,6 C 14,1 C 8,0 km/h (2 Bft) 97,87 %
15.10.2016 10:36 14,2 C 84 % 1012,3 hPa 0,0 l/m 4,0 km/h (1 Bft) W-SW 242 2 min 0,000 mm 1,2 UV-I 408 W/m 11,5 C 14,2 C 6,4 km/h (2 Bft) 96,00 %
15.10.2016 10:38 14,3 C 85 % 1012,3 hPa 0,0 l/m 4,2 km/h (1 Bft) W-SW 250 2 min 0,000 mm 1,2 UV-I 406 W/m 11,8 C 14,3 C 6,4 km/h (2 Bft) 97,37 %
15.10.2016 10:40 14,4 C 83 % 1012,3 hPa 0,0 l/m 2,8 km/h (1 Bft) W-SW 254 2 min 0,000 mm 1,2 UV-I 408 W/m 11,5 C 14,4 C 4,8 km/h (1 Bft) 93,62 %
15.10.2016 10:42 14,5 C 85 % 1012,3 hPa 0,0 l/m 1,9 km/h (1 Bft) W-SW 254 2 min 0,000 mm 1,2 UV-I 407 W/m 12,0 C 14,5 C 3,2 km/h (1 Bft) 98,11 %
15.10.2016 10:44 14,6 C 84 % 1012,3 hPa 0,0 l/m 8,3 km/h (2 Bft) W 263 2 min 0,000 mm 1,3 UV-I 412 W/m 11,9 C 13,5 C 12,9 km/h (3 Bft) 97,37 %
15.10.2016 10:46 14,7 C 83 % 1012,3 hPa 0,0 l/m 6,6 km/h (2 Bft) W-SW 258 2 min 0,000 mm 1,3 UV-I 414 W/m 11,8 C 14,6 C 12,9 km/h (3 Bft) 95,74 %
15.10.2016 10:48 14,7 C 82 % 1012,3 hPa 0,0 l/m 7,7 km/h (2 Bft) W 261 2 min 0,000 mm 1,3 UV-I 416 W/m 11,7 C 14,0 C 11,3 km/h (2 Bft) 96,00 %
15.10.2016 10:50 14,7 C 82 % 1012,3 hPa 0,0 l/m 6,0 km/h (2 Bft) SW 236 2 min 0,000 mm 1,3 UV-I 416 W/m 11,7 C 14,7 C 9,7 km/h (2 Bft) 97,56 %
15.10.2016 10:52 14,8 C 83 % 1012,3 hPa 0,0 l/m 4,7 km/h (1 Bft) NW 310 2 min 0,000 mm 1,3 UV-I 420 W/m 11,9 C 14,8 C 8,0 km/h (2 Bft) 97,62 %
15.10.2016 10:54 15,0 C 83 % 1012,4 hPa 0,0 l/m 2,4 km/h (1 Bft) W 261 2 min 0,000 mm 1,3 UV-I 423 W/m 12,1 C 15,0 C 4,8 km/h (1 Bft) 96,88 %
15.10.2016 10:56 15,0 C 82 % 1012,4 hPa 0,0 l/m 2,6 km/h (1 Bft) W-NW 286 2 min 0,000 mm 1,4 UV-I 427 W/m 12,0 C 15,0 C 4,8 km/h (1 Bft) 97,87 %
15.10.2016 10:58 15,0 C 81 % 1012,4 hPa 0,0 l/m 7,1 km/h (2 Bft) W-NW 285 2 min 0,000 mm 1,4 UV-I 433 W/m 11,8 C 14,6 C 14,5 km/h (3 Bft) 100,00 %
15.10.2016 11:00 15,1 C 81 % 1012,4 hPa 0,0 l/m 2,8 km/h (1 Bft) W 273 2 min 0,203 mm 1,4 UV-I 433 W/m 11,9 C 15,1 C 6,4 km/h (2 Bft) 100,00 %
15.10.2016 11:02 15,3 C 83 % 1012,5 hPa 0,0 l/m 5,1 km/h (1 Bft) W-SW 251 2 min 0,000 mm 1,4 UV-I 436 W/m 12,4 C 15,3 C 11,3 km/h (2 Bft) 97,14 %
15.10.2016 11:04 15,3 C 78 % 1012,4 hPa 0,0 l/m 7,0 km/h (2 Bft) W 268 2 min 0,000 mm 1,4 UV-I 437 W/m 11,5 C 15,0 C 16,1 km/h (3 Bft) 100,00 %
15.10.2016 11:06 15,3 C 79 % 1012,4 hPa 0,0 l/m 6,0 km/h (2 Bft) NW 307 2 min 0,000 mm 1,5 UV-I 441 W/m 11,7 C 15,3 C 12,9 km/h (3 Bft) 100,00 %
15.10.2016 11:08 15,3 C 78 % 1012,4 hPa 0,0 l/m 4,4 km/h (1 Bft) W 280 2 min 0,000 mm 1,5 UV-I 444 W/m 11,5 C 15,3 C 6,4 km/h (2 Bft) 100,00 %
15.10.2016 11:10 15,3 C 79 % 1012,4 hPa 0,0 l/m 6,2 km/h (2 Bft) W 273 2 min 0,000 mm 1,5 UV-I 446 W/m 11,7 C 15,3 C 9,7 km/h (2 Bft) 100,00 %
15.10.2016 11:12 15,3 C 78 % 1012,4 hPa 0,0 l/m 7,1 km/h (2 Bft) W-SW 239 2 min 0,000 mm 1,5 UV-I 447 W/m 11,5 C 14,9 C 14,5 km/h (3 Bft) 100,00 %
15.10.2016 11:14 15,3 C 78 % 1012,5 hPa 0,0 l/m 10,2 km/h (2 Bft) W-SW 254 2 min 0,000 mm 1,5 UV-I 451 W/m 11,5 C 13,4 C 20,9 km/h (4 Bft) 100,00 %
15.10.2016 11:16 15,4 C 78 % 1012,5 hPa 0,0 l/m 5,2 km/h (1 Bft) W-SW 242 2 min 0,000 mm 1,6 UV-I 456 W/m 11,6 C 15,4 C 12,9 km/h (3 Bft) 100,00 %
15.10.2016 11:18 15,4 C 78 % 1012,6 hPa 0,0 l/m 5,4 km/h (1 Bft) W-SW 238 2 min 0,000 mm 1,6 UV-I 459 W/m 11,6 C 15,4 C 11,3 km/h (2 Bft) 97,37 %
15.10.2016 11:20 15,5 C 78 % 1012,6 hPa 0,0 l/m 9,7 km/h (2 Bft) W-SW 256 2 min 0,000 mm 1,6 UV-I 460 W/m 11,7 C 13,8 C 16,1 km/h (3 Bft) 98,11 %
15.10.2016 11:22 15,4 C 77 % 1012,6 hPa 0,0 l/m 12,5 km/h (3 Bft) S-SW 213 2 min 0,000 mm 1,6 UV-I 462 W/m 11,4 C 12,5 C 20,9 km/h (4 Bft) 100,00 %
15.10.2016 11:24 15,6 C 77 % 1012,6 hPa 0,0 l/m 12,8 km/h (3 Bft) SW 228 2 min 0,000 mm 1,6 UV-I 466 W/m 11,6 C 12,7 C 19,3 km/h (3 Bft) 100,00 %
15.10.2016 11:26 15,6 C 77 % 1012,7 hPa 0,0 l/m 7,2 km/h (2 Bft) W 268 2 min 0,000 mm 1,6 UV-I 468 W/m 11,6 C 15,2 C 12,9 km/h (3 Bft) 100,00 %
15.10.2016 11:28 15,6 C 77 % 1012,6 hPa 0,0 l/m 9,2 km/h (2 Bft) W 271 2 min 0,000 mm 1,6 UV-I 469 W/m 11,6 C 14,1 C 16,1 km/h (3 Bft) 100,00 %
15.10.2016 11:30 15,7 C 78 % 1012,7 hPa 0,0 l/m 6,0 km/h (2 Bft) SW 225 2 min 0,000 mm 1,7 UV-I 472 W/m 11,9 C 15,7 C 9,7 km/h (2 Bft) 100,00 %
15.10.2016 11:32 15,8 C 78 % 1012,8 hPa 0,0 l/m 6,4 km/h (2 Bft) W 265 2 min 0,000 mm 1,7 UV-I 472 W/m 12,0 C 15,8 C 11,3 km/h (2 Bft) 98,00 %
15.10.2016 11:34 15,8 C 76 % 1012,8 hPa 0,0 l/m 5,2 km/h (1 Bft) SW 232 2 min 0,000 mm 1,4 UV-I 475 W/m 11,6 C 15,8 C 9,7 km/h (2 Bft) 100,00 %
15.10.2016 11:36 16,0 C 78 % 1012,8 hPa 0,0 l/m 5,8 km/h (2 Bft) NW 319 2 min 0,000 mm 1,7 UV-I 477 W/m 12,2 C 16,0 C 9,7 km/h (2 Bft) 97,73 %
15.10.2016 11:38 16,2 C 77 % 1012,9 hPa 0,0 l/m 5,8 km/h (2 Bft) W-SW 243 2 min 0,000 mm 1,7 UV-I 477 W/m 12,2 C 16,2 C 11,3 km/h (2 Bft) 97,62 %
15.10.2016 11:40 16,2 C 76 % 1012,8 hPa 0,0 l/m 11,5 km/h (2 Bft) W-SW 245 2 min 0,000 mm 1,7 UV-I 482 W/m 12,0 C 13,8 C 16,1 km/h (3 Bft) 98,18 %
15.10.2016 11:42 16,1 C 75 % 1012,8 hPa 0,0 l/m 8,9 km/h (2 Bft) W-SW 242 2 min 0,000 mm 1,8 UV-I 486 W/m 11,7 C 14,8 C 12,9 km/h (3 Bft) 100,00 %
15.10.2016 11:44 16,1 C 76 % 1012,7 hPa 0,0 l/m 6,8 km/h (2 Bft) W 273 2 min 0,000 mm 1,8 UV-I 488 W/m 11,9 C 15,9 C 14,5 km/h (3 Bft) 100,00 %
15.10.2016 11:46 16,1 C 76 % 1012,8 hPa 0,0 l/m 10,7 km/h (2 Bft) W-SW 246 2 min 0,000 mm 1,8 UV-I 491 W/m 11,9 C 14,0 C 16,1 km/h (3 Bft) 97,87 %
15.10.2016 11:48 16,1 C 76 % 1012,8 hPa 0,0 l/m 6,2 km/h (2 Bft) W-SW 254 2 min 0,000 mm 1,8 UV-I 492 W/m 11,9 C 16,1 C 11,3 km/h (2 Bft) 97,87 %
15.10.2016 11:50 16,2 C 75 % 1012,8 hPa 0,0 l/m 7,2 km/h (2 Bft) W 261 2 min 0,000 mm 1,8 UV-I 493 W/m 11,8 C 15,8 C 11,3 km/h (2 Bft) 97,56 %
15.10.2016 11:52 16,2 C 76 % 1012,7 hPa 0,0 l/m 6,7 km/h (2 Bft) W-SW 248 2 min 0,000 mm 1,8 UV-I 495 W/m 12,0 C 16,1 C 12,9 km/h (3 Bft) 100,00 %
15.10.2016 11:54 16,3 C 75 % 1012,8 hPa 0,0 l/m 6,2 km/h (2 Bft) W-NW 290 2 min 0,000 mm 1,8 UV-I 497 W/m 11,9 C 16,3 C 14,5 km/h (3 Bft) 100,00 %
15.10.2016 11:56 16,3 C 74 % 1012,9 hPa 0,0 l/m 9,7 km/h (2 Bft) S-SW 209 2 min 0,000 mm 1,9 UV-I 499 W/m 11,7 C 14,7 C 14,5 km/h (3 Bft) 93,62 %
15.10.2016 11:58 16,3 C 75 % 1012,9 hPa 0,0 l/m 10,0 km/h (2 Bft) W 259 2 min 0,000 mm 1,9 UV-I 502 W/m 11,9 C 14,6 C 16,1 km/h (3 Bft) 100,00 %
15.10.2016 12:00 16,3 C 74 % 1012,9 hPa 0,0 l/m 6,6 km/h (2 Bft) W 261 2 min 0,279 mm 1,9 UV-I 504 W/m 11,7 C 16,2 C 12,9 km/h (3 Bft) 100,00 %
15.10.2016 12:02 16,3 C 73 % 1012,9 hPa 0,0 l/m 7,8 km/h (2 Bft) W 260 2 min 0,000 mm 1,9 UV-I 505 W/m 11,4 C 15,6 C 14,5 km/h (3 Bft) 97,37 %
15.10.2016 12:04 16,4 C 74 % 1012,9 hPa 0,0 l/m 5,1 km/h (1 Bft) W-NW 303 2 min 0,000 mm 1,9 UV-I 508 W/m 11,8 C 16,4 C 11,3 km/h (2 Bft) 98,11 %
15.10.2016 12:06 16,4 C 74 % 1012,9 hPa 0,0 l/m 5,1 km/h (1 Bft) NW 319 2 min 0,000 mm 1,9 UV-I 510 W/m 11,8 C 16,4 C 11,3 km/h (2 Bft) 96,00 %
15.10.2016 12:08 16,4 C 75 % 1012,9 hPa 0,0 l/m 6,0 km/h (2 Bft) W 277 2 min 0,000 mm 1,9 UV-I 511 W/m 12,0 C 16,4 C 12,9 km/h (3 Bft) 97,87 %
15.10.2016 12:10 16,4 C 75 % 1012,8 hPa 0,0 l/m 5,5 km/h (1 Bft) W 259 2 min 0,000 mm 1,9 UV-I 513 W/m 12,0 C 16,4 C 11,3 km/h (2 Bft) 97,37 %
15.10.2016 12:12 16,5 C 76 % 1012,8 hPa 0,0 l/m 3,0 km/h (1 Bft) W 259 2 min 0,000 mm 1,9 UV-I 515 W/m 12,3 C 16,5 C 4,8 km/h (1 Bft) 98,11 %
15.10.2016 12:14 16,6 C 75 % 1012,8 hPa 0,0 l/m 4,6 km/h (1 Bft) W-NW 284 2 min 0,000 mm 1,9 UV-I 518 W/m 12,1 C 16,6 C 11,3 km/h (2 Bft) 98,00 %
15.10.2016 12:16 16,6 C 75 % 1012,9 hPa 0,0 l/m 4,5 km/h (1 Bft) W 270 2 min 0,000 mm 1,9 UV-I 520 W/m 12,1 C 16,6 C 12,9 km/h (3 Bft) 97,87 %
15.10.2016 12:18 16,6 C 75 % 1013,0 hPa 0,0 l/m 6,4 km/h (2 Bft) NW 321 2 min 0,000 mm 1,9 UV-I 522 W/m 12,1 C 16,6 C 12,9 km/h (3 Bft) 97,62 %
15.10.2016 12:20 16,4 C 74 % 1012,9 hPa 0,0 l/m 4,7 km/h (1 Bft) NW 325 2 min 0,000 mm 1,9 UV-I 512 W/m 11,8 C 16,4 C 12,9 km/h (3 Bft) 98,18 %
15.10.2016 12:22 16,3 C 74 % 1012,9 hPa 0,0 l/m 5,3 km/h (1 Bft) W 271 2 min 0,000 mm 1,9 UV-I 525 W/m 11,7 C 16,3 C 11,3 km/h (2 Bft) 97,62 %
15.10.2016 12:24 16,4 C 75 % 1013,0 hPa 0,0 l/m 5,6 km/h (1 Bft) W-NW 283 2 min 0,000 mm 1,9 UV-I 510 W/m 12,0 C 16,4 C 9,7 km/h (2 Bft) 96,00 %
15.10.2016 12:26 16,4 C 75 % 1012,9 hPa 0,0 l/m 5,8 km/h (2 Bft) SW 227 2 min 0,000 mm 1,9 UV-I 503 W/m 12,0 C 16,4 C 11,3 km/h (2 Bft) 97,87 %
15.10.2016 12:28 16,6 C 76 % 1013,0 hPa 0,0 l/m 5,6 km/h (1 Bft) W-NW 286 2 min 0,000 mm 1,9 UV-I 496 W/m 12,3 C 16,6 C 11,3 km/h (2 Bft) 100,00 %
15.10.2016 12:30 16,6 C 76 % 1013,0 hPa 0,0 l/m 4,2 km/h (1 Bft) W-SW 256 2 min 0,000 mm 1,8 UV-I 508 W/m 12,3 C 16,6 C 8,0 km/h (2 Bft) 96,23 %
15.10.2016 12:32 16,6 C 75 % 1013,0 hPa 0,0 l/m 1,8 km/h (1 Bft) NW 306 2 min 0,000 mm 1,5 UV-I 413 W/m 12,1 C 16,6 C 4,8 km/h (1 Bft) 98,31 %
15.10.2016 12:34 16,4 C 76 % 1013,0 hPa 0,0 l/m 4,3 km/h (1 Bft) W 263 2 min 0,000 mm 1,5 UV-I 333 W/m 12,2 C 16,4 C 6,4 km/h (2 Bft) 97,56 %
15.10.2016 12:36 16,4 C 75 % 1013,1 hPa 0,0 l/m 7,4 km/h (2 Bft) W-SW 249 0 min 0,000 mm 1,5 UV-I 253 W/m 12,0 C 15,9 C 11,3 km/h (2 Bft) 100,00 %
15.10.2016 12:38 16,3 C 74 % 1013,0 hPa 0,0 l/m 5,5 km/h (1 Bft) W 276 2 min 0,000 mm 1,6 UV-I 343 W/m 11,7 C 16,3 C 12,9 km/h (3 Bft) 100,00 %
15.10.2016 12:40 16,3 C 76 % 1013,1 hPa 0,0 l/m 5,1 km/h (1 Bft) W-SW 248 2 min 0,000 mm 1,6 UV-I 369 W/m 12,1 C 16,3 C 11,3 km/h (2 Bft) 100,00 %
15.10.2016 12:42 16,4 C 75 % 1013,2 hPa 0,0 l/m 10,3 km/h (2 Bft) W-SW 240 2 min 0,000 mm 1,7 UV-I 391 W/m 12,0 C 14,5 C 16,1 km/h (3 Bft) 100,00 %
15.10.2016 12:44 16,4 C 75 % 1013,2 hPa 0,0 l/m 8,5 km/h (2 Bft) W 265 2 min 0,000 mm 1,8 UV-I 469 W/m 12,0 C 15,3 C 14,5 km/h (3 Bft) 100,00 %
15.10.2016 12:46 16,5 C 76 % 1013,2 hPa 0,0 l/m 6,1 km/h (2 Bft) W-SW 254 2 min 0,000 mm 1,9 UV-I 490 W/m 12,3 C 16,5 C 14,5 km/h (3 Bft) 100,00 %
15.10.2016 12:48 16,6 C 75 % 1013,2 hPa 0,0 l/m 6,5 km/h (2 Bft) SW 234 2 min 0,000 mm 1,8 UV-I 424 W/m 12,1 C 16,6 C 11,3 km/h (2 Bft) 100,00 %
15.10.2016 12:50 16,7 C 75 % 1013,3 hPa 0,0 l/m 8,5 km/h (2 Bft) W-SW 250 2 min 0,000 mm 1,9 UV-I 525 W/m 12,2 C 15,6 C 17,7 km/h (3 Bft) 100,00 %
15.10.2016 12:52 16,8 C 74 % 1013,4 hPa 0,0 l/m 8,7 km/h (2 Bft) W-SW 248 2 min 0,000 mm 1,9 UV-I 492 W/m 12,1 C 15,7 C 16,1 km/h (3 Bft) 100,00 %
15.10.2016 12:54 16,9 C 76 % 1013,4 hPa 0,0 l/m 4,0 km/h (1 Bft) W 271 2 min 0,000 mm 1,9 UV-I 428 W/m 12,6 C 16,9 C 8,0 km/h (2 Bft) 100,00 %
15.10.2016 12:56 17,0 C 74 % 1013,4 hPa 0,0 l/m 6,2 km/h (2 Bft) W-SW 252 2 min 0,000 mm 1,9 UV-I 472 W/m 12,3 C 17,0 C 14,5 km/h (3 Bft) 100,00 %
15.10.2016 12:58 17,0 C 75 % 1013,4 hPa 0,0 l/m 5,0 km/h (1 Bft) W 274 2 min 0,000 mm 1,9 UV-I 441 W/m 12,5 C 17,0 C 11,3 km/h (2 Bft) 100,00 %
15.10.2016 13:00 17,1 C 73 % 1013,4 hPa 0,0 l/m 6,0 km/h (2 Bft) W 268 2 min 0,254 mm 1,9 UV-I 442 W/m 12,2 C 17,1 C 12,9 km/h (3 Bft) 100,00 %
15.10.2016 13:02 17,1 C 73 % 1013,3 hPa 0,0 l/m 9,5 km/h (2 Bft) W-NW 294 2 min 0,000 mm 1,9 UV-I 444 W/m 12,2 C 15,6 C 16,1 km/h (3 Bft) 98,11 %
15.10.2016 13:04 17,1 C 73 % 1013,3 hPa 0,0 l/m 5,8 km/h (2 Bft) S 180 2 min 0,000 mm 2,0 UV-I 560 W/m 12,2 C 17,1 C 9,7 km/h (2 Bft) 100,00 %
15.10.2016 13:06 17,3 C 74 % 1013,3 hPa 0,0 l/m 7,0 km/h (2 Bft) W 279 2 min 0,000 mm 2,1 UV-I 578 W/m 12,6 C 17,0 C 12,9 km/h (3 Bft) 95,74 %
15.10.2016 13:08 17,5 C 73 % 1013,2 hPa 0,0 l/m 8,7 km/h (2 Bft) W 273 2 min 0,000 mm 2,1 UV-I 567 W/m 12,6 C 16,4 C 16,1 km/h (3 Bft) 97,87 %
15.10.2016 13:10 17,5 C 73 % 1013,2 hPa 0,0 l/m 7,8 km/h (2 Bft) SW 231 2 min 0,000 mm 2,1 UV-I 555 W/m 12,6 C 16,8 C 11,3 km/h (2 Bft) 100,00 %
15.10.2016 13:12 17,6 C 70 % 1013,3 hPa 0,0 l/m 6,0 km/h (2 Bft) W 263 2 min 0,000 mm 2,0 UV-I 544 W/m 12,1 C 17,6 C 11,3 km/h (2 Bft) 97,87 %
15.10.2016 13:14 17,6 C 71 % 1013,2 hPa 0,0 l/m 8,2 km/h (2 Bft) W-NW 286 2 min 0,000 mm 2,0 UV-I 545 W/m 12,3 C 16,7 C 12,9 km/h (3 Bft) 98,11 %
15.10.2016 13:16 17,6 C 69 % 1013,3 hPa 0,0 l/m 8,4 km/h (2 Bft) W-SW 248 2 min 0,000 mm 1,8 UV-I 476 W/m 11,8 C 16,7 C 17,7 km/h (3 Bft) 100,00 %
15.10.2016 13:18 17,6 C 71 % 1013,3 hPa 0,0 l/m 4,7 km/h (1 Bft) W 277 2 min 0,000 mm 1,6 UV-I 354 W/m 12,3 C 17,6 C 14,5 km/h (3 Bft) 100,00 %
15.10.2016 13:20 17,5 C 70 % 1013,3 hPa 0,0 l/m 6,8 km/h (2 Bft) W-SW 254 2 min 0,000 mm 1,6 UV-I 343 W/m 12,0 C 17,3 C 16,1 km/h (3 Bft) 100,00 %
15.10.2016 13:22 17,3 C 70 % 1013,2 hPa 0,0 l/m 8,2 km/h (2 Bft) W 279 2 min 0,000 mm 1,6 UV-I 360 W/m 11,8 C 16,4 C 12,9 km/h (3 Bft) 100,00 %
15.10.2016 13:24 17,3 C 72 % 1013,3 hPa 0,0 l/m 4,8 km/h (1 Bft) W-SW 249 2 min 0,000 mm 1,8 UV-I 461 W/m 12,2 C 17,3 C 16,1 km/h (3 Bft) 100,00 %
15.10.2016 13:26 17,4 C 72 % 1013,3 hPa 0,0 l/m 5,5 km/h (1 Bft) W 274 2 min 0,000 mm 1,9 UV-I 498 W/m 12,3 C 17,4 C 11,3 km/h (2 Bft) 100,00 %
15.10.2016 13:28 17,7 C 71 % 1013,3 hPa 0,0 l/m 5,2 km/h (1 Bft) W 259 2 min 0,000 mm 2,0 UV-I 558 W/m 12,4 C 17,7 C 11,3 km/h (2 Bft) 100,00 %
15.10.2016 13:30 17,8 C 72 % 1013,3 hPa 0,0 l/m 5,2 km/h (1 Bft) W-SW 251 2 min 0,000 mm 1,9 UV-I 538 W/m 12,7 C 17,8 C 11,3 km/h (2 Bft) 100,00 %
15.10.2016 13:32 17,8 C 70 % 1013,3 hPa 0,0 l/m 9,9 km/h (2 Bft) W 270 2 min 0,000 mm 1,9 UV-I 541 W/m 12,3 C 16,2 C 14,5 km/h (3 Bft) 100,00 %
15.10.2016 13:34 17,8 C 69 % 1013,2 hPa 0,0 l/m 10,2 km/h (2 Bft) N-NW 327 2 min 0,000 mm 1,9 UV-I 507 W/m 12,0 C 16,1 C 17,7 km/h (3 Bft) 98,11 %
15.10.2016 13:35 17,8 C 69 % 1013,2 hPa 0,0 l/m 8,0 km/h (2 Bft) W-SW 247 1 min 0,000 mm 1,9 UV-I 522 W/m 12,0 C 17,0 C 17,7 km/h (3 Bft) 99,12 %
15.10.2016 13:40 17,8 C 69 % 1013,1 hPa 0,0 l/m 6,4 km/h (2 Bft) SW 225 0 min 0,000 mm 1,4 UV-I 287 W/m 12,0 C 17,8 C 11,3 km/h (2 Bft) 100,00 %
15.10.2016 13:45 17,5 C 72 % 1013,2 hPa 0,0 l/m 6,4 km/h (2 Bft) W-SW 247 0 min 0,000 mm 1,3 UV-I 233 W/m 12,4 C 17,5 C 16,1 km/h (3 Bft) 100,00 %
15.10.2016 13:50 17,2 C 72 % 1013,2 hPa 0,0 l/m 4,8 km/h (1 Bft) W-NW 292 0 min 0,000 mm 1,3 UV-I 219 W/m 12,1 C 17,2 C 11,3 km/h (2 Bft) 100,00 %
15.10.2016 13:56 17,0 C 71 % 1013,1 hPa 0,0 l/m 4,5 km/h (1 Bft) W 263 0 min 0,000 mm 1,3 UV-I 245 W/m 11,7 C 17,0 C 6,4 km/h (2 Bft) 93,10 %
15.10.2016 13:58 17,1 C 73 % 1013,1 hPa 0,0 l/m 6,8 km/h (2 Bft) W-NW 295 0 min 0,000 mm 1,3 UV-I 268 W/m 12,2 C 16,9 C 16,1 km/h (3 Bft) 93,62 %
15.10.2016 14:00 17,2 C 71 % 1013,2 hPa 0,0 l/m 7,1 km/h (2 Bft) W 260 2 min 0,229 mm 1,4 UV-I 299 W/m 11,9 C 16,9 C 14,5 km/h (3 Bft) 97,87 %
15.10.2016 14:02 17,2 C 72 % 1013,1 hPa 0,0 l/m 5,5 km/h (1 Bft) W-SW 252 2 min 0,000 mm 1,4 UV-I 354 W/m 12,1 C 17,2 C 12,9 km/h (3 Bft) 97,87 %
15.10.2016 14:04 17,3 C 72 % 1013,2 hPa 0,0 l/m 6,1 km/h (2 Bft) S-SW 211 2 min 0,000 mm 1,5 UV-I 377 W/m 12,2 C 17,3 C 11,3 km/h (2 Bft) 97,87 %
15.10.2016 14:06 17,4 C 72 % 1013,2 hPa 0,0 l/m 8,0 km/h (2 Bft) SW 225 2 min 0,000 mm 1,4 UV-I 334 W/m 12,3 C 16,6 C 12,9 km/h (3 Bft) 97,56 %
15.10.2016 14:08 17,4 C 71 % 1013,2 hPa 0,0 l/m 5,4 km/h (1 Bft) NW 313 2 min 0,000 mm 1,4 UV-I 363 W/m 12,1 C 17,4 C 12,9 km/h (3 Bft) 96,23 %
15.10.2016 14:10 17,4 C 72 % 1013,2 hPa 0,0 l/m 3,7 km/h (1 Bft) W 265 2 min 0,000 mm 1,4 UV-I 360 W/m 12,3 C 17,4 C 6,4 km/h (2 Bft) 98,00 %
15.10.2016 14:12 17,5 C 71 % 1013,1 hPa 0,0 l/m 2,6 km/h (1 Bft) W-NW 282 2 min 0,000 mm 1,4 UV-I 359 W/m 12,2 C 17,5 C 6,4 km/h (2 Bft) 97,87 %
15.10.2016 14:14 17,6 C 73 % 1013,2 hPa 0,0 l/m 1,4 km/h (1 Bft) W-NW 296 2 min 0,000 mm 1,5 UV-I 400 W/m 12,7 C 17,6 C 4,8 km/h (1 Bft) 97,87 %
15.10.2016 14:16 17,6 C 72 % 1013,2 hPa 0,0 l/m 3,0 km/h (1 Bft) W-NW 285 2 min 0,000 mm 1,5 UV-I 417 W/m 12,5 C 17,6 C 9,7 km/h (2 Bft) 100,00 %
15.10.2016 14:18 17,7 C 73 % 1013,3 hPa 0,0 l/m 2,6 km/h (1 Bft) W 271 2 min 0,000 mm 1,5 UV-I 402 W/m 12,8 C 17,7 C 9,7 km/h (2 Bft) 100,00 %
15.10.2016 14:20 17,7 C 71 % 1013,2 hPa 0,0 l/m 4,2 km/h (1 Bft) W-SW 251 2 min 0,000 mm 1,5 UV-I 395 W/m 12,4 C 17,7 C 11,3 km/h (2 Bft) 100,00 %
15.10.2016 14:22 17,7 C 73 % 1013,3 hPa 0,0 l/m 4,0 km/h (1 Bft) W-SW 254 2 min 0,000 mm 1,5 UV-I 412 W/m 12,8 C 17,7 C 6,4 km/h (2 Bft) 98,00 %
15.10.2016 14:24 17,7 C 72 % 1013,4 hPa 0,0 l/m 3,5 km/h (1 Bft) W-SW 237 2 min 0,000 mm 1,5 UV-I 410 W/m 12,6 C 17,7 C 9,7 km/h (2 Bft) 97,37 %
15.10.2016 14:26 17,8 C 70 % 1013,4 hPa 0,0 l/m 7,2 km/h (2 Bft) W-SW 246 2 min 0,000 mm 1,5 UV-I 432 W/m 12,3 C 17,4 C 12,9 km/h (3 Bft) 100,00 %
15.10.2016 14:28 17,8 C 71 % 1013,4 hPa 0,0 l/m 6,6 km/h (2 Bft) W-NW 289 2 min 0,000 mm 1,4 UV-I 402 W/m 12,5 C 17,7 C 11,3 km/h (2 Bft) 100,00 %
15.10.2016 14:30 17,8 C 69 % 1013,4 hPa 0,0 l/m 7,7 km/h (2 Bft) SW 226 2 min 0,000 mm 1,5 UV-I 444 W/m 12,0 C 17,2 C 11,3 km/h (2 Bft) 100,00 %
15.10.2016 14:32 17,9 C 70 % 1013,4 hPa 0,0 l/m 3,1 km/h (1 Bft) W-SW 243 2 min 0,000 mm 1,5 UV-I 491 W/m 12,3 C 17,9 C 6,4 km/h (2 Bft) 100,00 %
15.10.2016 14:34 18,1 C 74 % 1013,4 hPa 0,0 l/m 1,2 km/h (1 Bft) SO 142 2 min 0,000 mm 1,5 UV-I 470 W/m 13,4 C 18,1 C 3,2 km/h (1 Bft) 100,00 %
15.10.2016 14:36 18,2 C 71 % 1013,4 hPa 0,0 l/m 1,1 km/h (1 Bft) NW 309 2 min 0,000 mm 1,5 UV-I 480 W/m 12,9 C 18,2 C 3,2 km/h (1 Bft) 100,00 %
15.10.2016 14:38 18,2 C 70 % 1013,5 hPa 0,0 l/m 3,1 km/h (1 Bft) W 262 2 min 0,000 mm 1,5 UV-I 501 W/m 12,6 C 18,2 C 6,4 km/h (2 Bft) 100,00 %
15.10.2016 14:40 18,2 C 69 % 1013,5 hPa 0,0 l/m 3,5 km/h (1 Bft) W-NW 285 2 min 0,000 mm 1,5 UV-I 480 W/m 12,4 C 18,2 C 6,4 km/h (2 Bft) 100,00 %
15.10.2016 14:42 18,2 C 69 % 1013,5 hPa 0,0 l/m 5,4 km/h (1 Bft) W 267 2 min 0,000 mm 1,4 UV-I 386 W/m 12,4 C 18,2 C 11,3 km/h (2 Bft) 100,00 %
15.10.2016 14:44 18,1 C 68 % 1013,5 hPa 0,0 l/m 4,9 km/h (1 Bft) W-NW 287 2 min 0,000 mm 1,4 UV-I 454 W/m 12,1 C 18,1 C 12,9 km/h (3 Bft) 100,00 %
15.10.2016 14:46 17,9 C 68 % 1013,5 hPa 0,0 l/m 6,1 km/h (2 Bft) W-SW 244 2 min 0,000 mm 1,2 UV-I 375 W/m 11,9 C 17,9 C 14,5 km/h (3 Bft) 100,00 %
15.10.2016 14:48 17,7 C 68 % 1013,5 hPa 0,0 l/m 5,4 km/h (1 Bft) NW 317 0 min 0,000 mm 1,2 UV-I 208 W/m 11,7 C 17,7 C 11,3 km/h (2 Bft) 100,00 %
15.10.2016 14:50 17,6 C 68 % 1013,5 hPa 0,0 l/m 2,1 km/h (1 Bft) W 281 2 min 0,000 mm 1,2 UV-I 295 W/m 11,6 C 17,6 C 4,8 km/h (1 Bft) 98,57 %
15.10.2016 14:52 17,4 C 70 % 1013,5 hPa 0,0 l/m 3,7 km/h (1 Bft) NW 313 2 min 0,000 mm 1,2 UV-I 261 W/m 11,9 C 17,4 C 6,4 km/h (2 Bft) 100,00 %
15.10.2016 14:54 17,5 C 70 % 1013,5 hPa 0,0 l/m 3,3 km/h (1 Bft) W-SW 245 2 min 0,000 mm 1,3 UV-I 378 W/m 12,0 C 17,5 C 4,8 km/h (1 Bft) 100,00 %
15.10.2016 14:56 17,7 C 71 % 1013,4 hPa 0,0 l/m 3,4 km/h (1 Bft) W 259 2 min 0,000 mm 1,3 UV-I 473 W/m 12,4 C 17,7 C 9,7 km/h (2 Bft) 96,00 %
15.10.2016 14:58 17,9 C 71 % 1013,5 hPa 0,0 l/m 4,0 km/h (1 Bft) W 269 2 min 0,000 mm 1,3 UV-I 435 W/m 12,6 C 17,9 C 8,0 km/h (2 Bft) 100,00 %
15.10.2016 15:00 18,1 C 70 % 1013,5 hPa 0,0 l/m 4,5 km/h (1 Bft) W 271 2 min 0,000 mm 1,3 UV-I 477 W/m 12,5 C 18,1 C 11,3 km/h (2 Bft) 100,00 %
15.10.2016 15:02 18,1 C 69 % 1013,5 hPa 0,0 l/m 10,8 km/h (2 Bft) W-SW 253 2 min 0,229 mm 1,3 UV-I 511 W/m 12,3 C 16,3 C 14,5 km/h (3 Bft) 97,56 %
15.10.2016 15:04 18,2 C 70 % 1013,5 hPa 0,0 l/m 7,7 km/h (2 Bft) W-NW 282 2 min 0,000 mm 1,3 UV-I 499 W/m 12,6 C 17,6 C 14,5 km/h (3 Bft) 100,00 %
15.10.2016 15:06 18,2 C 68 % 1013,5 hPa 0,0 l/m 9,3 km/h (2 Bft) SW 234 2 min 0,000 mm 1,3 UV-I 496 W/m 12,2 C 16,9 C 14,5 km/h (3 Bft) 100,00 %
15.10.2016 15:08 18,3 C 70 % 1013,5 hPa 0,0 l/m 7,5 km/h (2 Bft) SW 217 2 min 0,000 mm 1,3 UV-I 493 W/m 12,7 C 17,8 C 11,3 km/h (2 Bft) 100,00 %
15.10.2016 15:10 18,3 C 68 % 1013,6 hPa 0,0 l/m 6,4 km/h (2 Bft) SW 227 2 min 0,000 mm 1,2 UV-I 490 W/m 12,3 C 18,3 C 9,7 km/h (2 Bft) 100,00 %
15.10.2016 15:12 18,5 C 69 % 1013,6 hPa 0,0 l/m 5,2 km/h (1 Bft) W 263 2 min 0,000 mm 1,2 UV-I 507 W/m 12,7 C 18,5 C 9,7 km/h (2 Bft) 100,00 %
15.10.2016 15:14 18,6 C 67 % 1013,6 hPa 0,0 l/m 7,4 km/h (2 Bft) W-SW 252 2 min 0,000 mm 1,2 UV-I 515 W/m 12,3 C 18,1 C 14,5 km/h (3 Bft) 100,00 %
15.10.2016 15:16 18,5 C 68 % 1013,6 hPa 0,0 l/m 6,4 km/h (2 Bft) SW 228 2 min 0,000 mm 1,2 UV-I 524 W/m 12,5 C 18,5 C 12,9 km/h (3 Bft) 100,00 %
15.10.2016 15:18 18,6 C 68 % 1013,6 hPa 0,0 l/m 9,3 km/h (2 Bft) W 267 2 min 0,000 mm 1,1 UV-I 516 W/m 12,6 C 17,4 C 16,1 km/h (3 Bft) 100,00 %
15.10.2016 15:20 18,6 C 68 % 1013,7 hPa 0,0 l/m 6,7 km/h (2 Bft) SW 226 2 min 0,000 mm 1,1 UV-I 526 W/m 12,6 C 18,5 C 12,9 km/h (3 Bft) 100,00 %
15.10.2016 15:22 18,6 C 66 % 1013,6 hPa 0,0 l/m 6,3 km/h (2 Bft) W 261 2 min 0,000 mm 1,0 UV-I 475 W/m 12,1 C 18,6 C 11,3 km/h (2 Bft) 100,00 %
15.10.2016 15:24 18,5 C 68 % 1013,7 hPa 0,0 l/m 3,7 km/h (1 Bft) W-NW 298 2 min 0,000 mm 1,0 UV-I 478 W/m 12,5 C 18,5 C 6,4 km/h (2 Bft) 100,00 %
15.10.2016 15:26 18,6 C 69 % 1013,6 hPa 0,0 l/m 4,8 km/h (1 Bft) W-SW 247 2 min 0,000 mm 1,0 UV-I 554 W/m 12,8 C 18,6 C 11,3 km/h (2 Bft) 100,00 %
15.10.2016 15:28 18,8 C 68 % 1013,5 hPa 0,0 l/m 6,7 km/h (2 Bft) W-SW 242 2 min 0,000 mm 1,0 UV-I 557 W/m 12,8 C 18,7 C 14,5 km/h (3 Bft) 100,00 %
15.10.2016 15:30 18,8 C 66 % 1013,6 hPa 0,0 l/m 6,4 km/h (2 Bft) NW 317 2 min 0,000 mm 1,0 UV-I 488 W/m 12,3 C 18,8 C 12,9 km/h (3 Bft) 100,00 %
15.10.2016 15:32 18,8 C 67 % 1013,6 hPa 0,0 l/m 6,1 km/h (2 Bft) W-SW 244 2 min 0,000 mm 0,9 UV-I 440 W/m 12,5 C 18,8 C 11,3 km/h (2 Bft) 100,00 %
15.10.2016 15:34 18,8 C 65 % 1013,6 hPa 0,0 l/m 8,4 km/h (2 Bft) W 270 2 min 0,000 mm 0,8 UV-I 341 W/m 12,1 C 17,9 C 16,1 km/h (3 Bft) 98,00 %
15.10.2016 15:36 18,7 C 66 % 1013,6 hPa 0,0 l/m 6,0 km/h (2 Bft) W 260 2 min 0,000 mm 0,9 UV-I 349 W/m 12,2 C 18,7 C 11,3 km/h (2 Bft) 98,00 %
15.10.2016 15:38 18,6 C 66 % 1013,5 hPa 0,0 l/m 7,9 km/h (2 Bft) W-SW 254 2 min 0,000 mm 0,8 UV-I 371 W/m 12,1 C 17,9 C 11,3 km/h (2 Bft) 97,37 %
15.10.2016 15:40 18,5 C 66 % 1013,5 hPa 0,0 l/m 8,5 km/h (2 Bft) NW 323 2 min 0,000 mm 0,8 UV-I 276 W/m 12,0 C 17,6 C 14,5 km/h (3 Bft) 98,21 %
15.10.2016 15:42 18,4 C 66 % 1013,5 hPa 0,0 l/m 8,3 km/h (2 Bft) W 259 2 min 0,000 mm 0,8 UV-I 384 W/m 11,9 C 17,5 C 12,9 km/h (3 Bft) 97,37 %
15.10.2016 15:44 18,4 C 67 % 1013,6 hPa 0,0 l/m 5,0 km/h (1 Bft) N 355 2 min 0,000 mm 0,8 UV-I 414 W/m 12,2 C 18,4 C 12,9 km/h (3 Bft) 97,87 %
15.10.2016 15:46 18,4 C 67 % 1013,5 hPa 0,0 l/m 8,3 km/h (2 Bft) W-SW 238 2 min 0,000 mm 0,8 UV-I 405 W/m 12,2 C 17,5 C 11,3 km/h (2 Bft) 98,11 %
15.10.2016 15:48 18,5 C 67 % 1013,6 hPa 0,0 l/m 7,0 km/h (2 Bft) W-NW 289 2 min 0,000 mm 0,8 UV-I 403 W/m 12,3 C 18,2 C 14,5 km/h (3 Bft) 95,45 %
15.10.2016 15:50 18,4 C 66 % 1013,6 hPa 0,0 l/m 5,5 km/h (1 Bft) W-SW 239 2 min 0,000 mm 0,7 UV-I 401 W/m 11,9 C 18,4 C 11,3 km/h (2 Bft) 96,00 %
15.10.2016 15:52 18,4 C 67 % 1013,6 hPa 0,0 l/m 4,9 km/h (1 Bft) W-SW 240 2 min 0,000 mm 0,7 UV-I 383 W/m 12,2 C 18,4 C 11,3 km/h (2 Bft) 95,12 %
15.10.2016 15:54 18,4 C 66 % 1013,6 hPa 0,0 l/m 8,9 km/h (2 Bft) W-SW 251 2 min 0,000 mm 0,7 UV-I 305 W/m 11,9 C 17,3 C 14,5 km/h (3 Bft) 94,34 %
15.10.2016 15:56 18,3 C 66 % 1013,7 hPa 0,0 l/m 11,4 km/h (2 Bft) W-SW 251 0 min 0,000 mm 0,6 UV-I 183 W/m 11,8 C 16,3 C 17,7 km/h (3 Bft) 97,87 %
15.10.2016 15:58 18,2 C 67 % 1013,7 hPa 0,0 l/m 10,7 km/h (2 Bft) W-SW 258 0 min 0,000 mm 0,6 UV-I 143 W/m 12,0 C 16,4 C 14,5 km/h (3 Bft) 97,30 %
15.10.2016 16:00 18,1 C 68 % 1013,7 hPa 0,0 l/m 5,4 km/h (1 Bft) W 272 2 min 0,254 mm 0,6 UV-I 184 W/m 12,1 C 18,1 C 8,0 km/h (2 Bft) 98,11 %
15.10.2016 16:02 18,0 C 68 % 1013,8 hPa 0,0 l/m 8,0 km/h (2 Bft) W 259 2 min 0,000 mm 0,6 UV-I 238 W/m 12,0 C 17,3 C 14,5 km/h (3 Bft) 97,44 %
15.10.2016 16:04 18,0 C 68 % 1013,7 hPa 0,0 l/m 7,4 km/h (2 Bft) W-SW 246 2 min 0,000 mm 0,6 UV-I 238 W/m 12,0 C 17,5 C 14,5 km/h (3 Bft) 98,04 %
15.10.2016 16:06 17,9 C 69 % 1013,9 hPa 0,0 l/m 9,9 km/h (2 Bft) W-SW 257 2 min 0,000 mm 0,6 UV-I 241 W/m 12,1 C 16,4 C 14,5 km/h (3 Bft) 97,78 %
15.10.2016 16:08 17,9 C 69 % 1013,9 hPa 0,0 l/m 8,0 km/h (2 Bft) W-SW 257 2 min 0,000 mm 0,6 UV-I 292 W/m 12,1 C 17,1 C 14,5 km/h (3 Bft) 100,00 %
15.10.2016 16:10 17,9 C 68 % 1013,9 hPa 0,0 l/m 5,6 km/h (1 Bft) W 273 2 min 0,000 mm 0,6 UV-I 325 W/m 11,9 C 17,9 C 11,3 km/h (2 Bft) 97,87 %
15.10.2016 16:12 17,9 C 69 % 1013,9 hPa 0,0 l/m 5,6 km/h (1 Bft) W-SW 256 2 min 0,000 mm 0,5 UV-I 359 W/m 12,1 C 17,9 C 9,7 km/h (2 Bft) 97,87 %
15.10.2016 16:14 18,0 C 68 % 1013,9 hPa 0,0 l/m 5,0 km/h (1 Bft) W 264 2 min 0,000 mm 0,5 UV-I 352 W/m 12,0 C 18,0 C 11,3 km/h (2 Bft) 97,87 %
15.10.2016 16:16 18,1 C 69 % 1013,9 hPa 0,0 l/m 4,9 km/h (1 Bft) W-SW 241 2 min 0,000 mm 0,5 UV-I 346 W/m 12,3 C 18,1 C 11,3 km/h (2 Bft) 100,00 %
15.10.2016 16:18 18,1 C 69 % 1013,9 hPa 0,0 l/m 2,7 km/h (1 Bft) W 275 2 min 0,000 mm 0,5 UV-I 330 W/m 12,3 C 18,1 C 6,4 km/h (2 Bft) 100,00 %
15.10.2016 16:20 18,1 C 68 % 1014,0 hPa 0,0 l/m 2,8 km/h (1 Bft) W 270 2 min 0,000 mm 0,5 UV-I 313 W/m 12,1 C 18,1 C 9,7 km/h (2 Bft) 96,00 %
15.10.2016 16:22 18,1 C 67 % 1013,9 hPa 0,0 l/m 8,0 km/h (2 Bft) W-SW 252 2 min 0,000 mm 0,3 UV-I 299 W/m 11,9 C 17,4 C 12,9 km/h (3 Bft) 100,00 %
15.10.2016 16:24 18,1 C 68 % 1013,9 hPa 0,0 l/m 10,2 km/h (2 Bft) W 269 2 min 0,000 mm 0,0 UV-I 294 W/m 12,1 C 16,5 C 16,1 km/h (3 Bft) 100,00 %
15.10.2016 16:26 18,1 C 68 % 1014,0 hPa 0,0 l/m 7,7 km/h (2 Bft) W 263 2 min 0,000 mm 0,0 UV-I 289 W/m 12,1 C 17,5 C 14,5 km/h (3 Bft) 100,00 %
15.10.2016 16:28 18,1 C 67 % 1014,0 hPa 0,0 l/m 5,5 km/h (1 Bft) W 273 2 min 0,000 mm 0,0 UV-I 280 W/m 11,9 C 18,1 C 9,7 km/h (2 Bft) 100,00 %
15.10.2016 16:30 18,1 C 67 % 1013,9 hPa 0,0 l/m 5,6 km/h (1 Bft) W 267 2 min 0,000 mm 0,0 UV-I 233 W/m 11,9 C 18,1 C 11,3 km/h (2 Bft) 100,00 %
15.10.2016 16:32 18,1 C 68 % 1014,0 hPa 0,0 l/m 3,8 km/h (1 Bft) W 265 2 min 0,000 mm 0,0 UV-I 209 W/m 12,1 C 18,1 C 9,7 km/h (2 Bft) 100,00 %
15.10.2016 16:34 18,1 C 68 % 1014,0 hPa 0,0 l/m 6,2 km/h (2 Bft) W 269 2 min 0,000 mm 0,0 UV-I 227 W/m 12,1 C 18,1 C 12,9 km/h (3 Bft) 100,00 %
15.10.2016 16:36 18,1 C 68 % 1014,0 hPa 0,0 l/m 5,4 km/h (1 Bft) W 278 2 min 0,000 mm 0,0 UV-I 208 W/m 12,1 C 18,1 C 9,7 km/h (2 Bft) 100,00 %
15.10.2016 16:38 18,1 C 68 % 1014,0 hPa 0,0 l/m 6,8 km/h (2 Bft) W-NW 286 2 min 0,000 mm 0,0 UV-I 217 W/m 12,1 C 17,9 C 12,9 km/h (3 Bft) 100,00 %
15.10.2016 16:40 18,1 C 69 % 1014,1 hPa 0,0 l/m 6,6 km/h (2 Bft) W-NW 282 2 min 0,000 mm 0,0 UV-I 219 W/m 12,3 C 18,0 C 12,9 km/h (3 Bft) 100,00 %
15.10.2016 16:42 18,1 C 68 % 1014,1 hPa 0,0 l/m 6,8 km/h (2 Bft) W 265 2 min 0,000 mm 0,0 UV-I 218 W/m 12,1 C 17,9 C 11,3 km/h (2 Bft) 95,74 %
15.10.2016 16:44 18,1 C 68 % 1014,0 hPa 0,0 l/m 7,5 km/h (2 Bft) W-SW 252 2 min 0,000 mm 0,0 UV-I 216 W/m 12,1 C 17,6 C 12,9 km/h (3 Bft) 100,00 %
15.10.2016 16:46 18,1 C 68 % 1014,1 hPa 0,0 l/m 7,7 km/h (2 Bft) W-SW 249 2 min 0,000 mm 0,0 UV-I 198 W/m 12,1 C 17,5 C 11,3 km/h (2 Bft) 100,00 %
15.10.2016 16:48 18,1 C 69 % 1014,1 hPa 0,0 l/m 9,1 km/h (2 Bft) W-SW 253 2 min 0,000 mm 0,0 UV-I 146 W/m 12,3 C 16,9 C 14,5 km/h (3 Bft) 97,62 %
15.10.2016 16:50 18,0 C 68 % 1014,1 hPa 0,0 l/m 11,0 km/h (2 Bft) W 278 2 min 0,000 mm 0,0 UV-I 161 W/m 12,0 C 16,1 C 17,7 km/h (3 Bft) 100,00 %
15.10.2016 16:52 17,9 C 68 % 1014,2 hPa 0,0 l/m 9,4 km/h (2 Bft) W-SW 244 2 min 0,000 mm 0,0 UV-I 196 W/m 11,9 C 16,6 C 16,1 km/h (3 Bft) 100,00 %
15.10.2016 16:54 17,9 C 69 % 1014,1 hPa 0,0 l/m 8,1 km/h (2 Bft) SW 236 2 min 0,000 mm 0,0 UV-I 187 W/m 12,1 C 17,1 C 14,5 km/h (3 Bft) 100,00 %
15.10.2016 16:56 17,8 C 69 % 1014,1 hPa 0,0 l/m 10,5 km/h (2 Bft) W-SW 242 2 min 0,000 mm 0,0 UV-I 176 W/m 12,0 C 16,0 C 17,7 km/h (3 Bft) 100,00 %
15.10.2016 16:58 17,8 C 69 % 1014,2 hPa 0,0 l/m 7,1 km/h (2 Bft) W-SW 249 2 min 0,000 mm 0,0 UV-I 122 W/m 12,0 C 17,5 C 9,7 km/h (2 Bft) 100,00 %
15.10.2016 17:00 17,8 C 69 % 1014,2 hPa 0,0 l/m 8,9 km/h (2 Bft) W-SW 245 0 min 0,000 mm 0,0 UV-I 91 W/m 12,0 C 16,7 C 14,5 km/h (3 Bft) 97,73 %
15.10.2016 17:02 17,7 C 69 % 1014,2 hPa 0,0 l/m 9,1 km/h (2 Bft) W-SW 257 0 min 0,177 mm 0,0 UV-I 84 W/m 11,9 C 16,5 C 14,5 km/h (3 Bft) 100,00 %
15.10.2016 17:04 17,6 C 69 % 1014,3 hPa 0,0 l/m 8,7 km/h (2 Bft) W 259 0 min 0,000 mm 0,0 UV-I 78 W/m 11,8 C 16,5 C 14,5 km/h (3 Bft) 100,00 %
15.10.2016 17:06 17,6 C 70 % 1014,3 hPa 0,0 l/m 7,3 km/h (2 Bft) W-SW 239 0 min 0,000 mm 0,0 UV-I 76 W/m 12,1 C 17,2 C 11,3 km/h (2 Bft) 97,73 %
15.10.2016 17:08 17,4 C 70 % 1014,3 hPa 0,0 l/m 7,0 km/h (2 Bft) W-SW 247 0 min 0,000 mm 0,0 UV-I 77 W/m 11,9 C 17,1 C 11,3 km/h (2 Bft) 100,00 %
15.10.2016 17:10 17,4 C 70 % 1014,3 hPa 0,0 l/m 8,0 km/h (2 Bft) W-SW 240 0 min 0,000 mm 0,0 UV-I 72 W/m 11,9 C 16,6 C 12,9 km/h (3 Bft) 97,87 %
15.10.2016 17:13 17,3 C 71 % 1014,3 hPa 0,0 l/m 6,0 km/h (2 Bft) W-SW 245 0 min 0,000 mm 0,0 UV-I 57 W/m 12,0 C 17,3 C 11,3 km/h (2 Bft) 100,00 %
15.10.2016 17:14 17,3 C 71 % 1014,3 hPa 0,0 l/m 5,0 km/h (1 Bft) W 269 0 min 0,000 mm 0,0 UV-I 47 W/m 12,0 C 17,3 C 6,4 km/h (2 Bft) 98,86 %
15.10.2016 17:16 17,2 C 71 % 1014,4 hPa 0,0 l/m 6,4 km/h (2 Bft) W-SW 257 0 min 0,000 mm 0,0 UV-I 45 W/m 11,9 C 17,2 C 9,7 km/h (2 Bft) 100,00 %
15.10.2016 17:18 17,2 C 72 % 1014,4 hPa 0,0 l/m 4,6 km/h (1 Bft) W-SW 254 0 min 0,000 mm 0,0 UV-I 46 W/m 12,1 C 17,2 C 8,0 km/h (2 Bft) 100,00 %
15.10.2016 17:20 17,1 C 72 % 1014,4 hPa 0,0 l/m 5,1 km/h (1 Bft) W 265 0 min 0,000 mm 0,0 UV-I 51 W/m 12,0 C 17,1 C 6,4 km/h (2 Bft) 100,00 %
15.10.2016 17:22 17,1 C 73 % 1014,4 hPa 0,0 l/m 4,3 km/h (1 Bft) W 262 0 min 0,000 mm 0,0 UV-I 54 W/m 12,2 C 17,1 C 6,4 km/h (2 Bft) 100,00 %
15.10.2016 17:24 17,0 C 72 % 1014,4 hPa 0,0 l/m 6,2 km/h (2 Bft) W-SW 250 0 min 0,000 mm 0,0 UV-I 53 W/m 11,9 C 17,0 C 11,3 km/h (2 Bft) 100,00 %
15.10.2016 17:26 17,0 C 73 % 1014,5 hPa 0,0 l/m 5,1 km/h (1 Bft) W 259 0 min 0,000 mm 0,0 UV-I 50 W/m 12,1 C 17,0 C 6,4 km/h (2 Bft) 97,87 %
15.10.2016 17:28 16,9 C 74 % 1014,4 hPa 0,0 l/m 5,0 km/h (1 Bft) W 259 0 min 0,000 mm 0,0 UV-I 48 W/m 12,2 C 16,9 C 8,0 km/h (2 Bft) 100,00 %
15.10.2016 17:30 16,9 C 73 % 1014,5 hPa 0,0 l/m 6,6 km/h (2 Bft) W-SW 250 0 min 0,000 mm 0,0 UV-I 43 W/m 12,0 C 16,8 C 11,3 km/h (2 Bft) 97,22 %
15.10.2016 17:32 16,9 C 73 % 1014,5 hPa 0,0 l/m 5,5 km/h (1 Bft) W 265 0 min 0,000 mm 0,0 UV-I 40 W/m 12,0 C 16,9 C 9,7 km/h (2 Bft) 98,15 %
15.10.2016 17:34 16,8 C 73 % 1014,6 hPa 0,0 l/m 4,0 km/h (1 Bft) W 268 0 min 0,000 mm 0,0 UV-I 39 W/m 11,9 C 16,8 C 4,8 km/h (1 Bft) 97,92 %
15.10.2016 17:36 16,8 C 74 % 1014,6 hPa 0,0 l/m 4,0 km/h (1 Bft) W-SW 250 0 min 0,000 mm 0,0 UV-I 39 W/m 12,1 C 16,8 C 6,4 km/h (2 Bft) 94,00 %
15.10.2016 17:38 16,7 C 74 % 1014,6 hPa 0,0 l/m 4,3 km/h (1 Bft) W-SW 254 0 min 0,000 mm 0,0 UV-I 36 W/m 12,0 C 16,7 C 6,4 km/h (2 Bft) 97,87 %
15.10.2016 17:40 16,7 C 74 % 1014,6 hPa 0,0 l/m 4,3 km/h (1 Bft) W-SW 246 0 min 0,000 mm 0,0 UV-I 33 W/m 12,0 C 16,7 C 6,4 km/h (2 Bft) 97,87 %
15.10.2016 17:42 16,7 C 74 % 1014,6 hPa 0,0 l/m 4,4 km/h (1 Bft) W-SW 252 0 min 0,000 mm 0,0 UV-I 31 W/m 12,0 C 16,7 C 6,4 km/h (2 Bft) 95,74 %
15.10.2016 17:44 16,7 C 74 % 1014,7 hPa 0,0 l/m 5,1 km/h (1 Bft) W-SW 257 0 min 0,000 mm 0,0 UV-I 30 W/m 12,0 C 16,7 C 6,4 km/h (2 Bft) 97,14 %
15.10.2016 17:46 16,6 C 75 % 1014,7 hPa 0,0 l/m 5,1 km/h (1 Bft) W-SW 256 0 min 0,000 mm 0,0 UV-I 29 W/m 12,1 C 16,6 C 6,4 km/h (2 Bft) 98,11 %
15.10.2016 17:48 16,6 C 75 % 1014,7 hPa 0,0 l/m 3,6 km/h (1 Bft) W-SW 250 0 min 0,000 mm 0,0 UV-I 27 W/m 12,1 C 16,6 C 4,8 km/h (1 Bft) 94,34 %
15.10.2016 17:50 16,4 C 75 % 1014,7 hPa 0,0 l/m 2,6 km/h (1 Bft) W-SW 258 0 min 0,000 mm 0,0 UV-I 25 W/m 12,0 C 16,4 C 4,8 km/h (1 Bft) 95,74 %
15.10.2016 17:52 16,4 C 75 % 1014,7 hPa 0,0 l/m 4,1 km/h (1 Bft) W-SW 257 0 min 0,000 mm 0,0 UV-I 23 W/m 12,0 C 16,4 C 6,4 km/h (2 Bft) 97,87 %
15.10.2016 17:54 16,4 C 76 % 1014,7 hPa 0,0 l/m 4,1 km/h (1 Bft) W-SW 250 0 min 0,000 mm 0,0 UV-I 20 W/m 12,2 C 16,4 C 6,4 km/h (2 Bft) 97,37 %
15.10.2016 17:56 16,3 C 76 % 1014,7 hPa 0,0 l/m 3,9 km/h (1 Bft) W-SW 252 0 min 0,000 mm 0,0 UV-I 18 W/m 12,1 C 16,3 C 6,4 km/h (2 Bft) 98,00 %
15.10.2016 17:58 16,2 C 76 % 1014,7 hPa 0,0 l/m 4,7 km/h (1 Bft) W-SW 250 0 min 0,000 mm 0,0 UV-I 16 W/m 12,0 C 16,2 C 6,4 km/h (2 Bft) 98,00 %
15.10.2016 18:00 16,2 C 77 % 1014,8 hPa 0,0 l/m 4,8 km/h (1 Bft) W-SW 252 0 min 0,051 mm 0,0 UV-I 13 W/m 12,2 C 16,2 C 6,4 km/h (2 Bft) 97,56 %
15.10.2016 18:02 16,1 C 77 % 1014,8 hPa 0,0 l/m 4,7 km/h (1 Bft) W-SW 248 0 min 0,000 mm 0,0 UV-I 10 W/m 12,1 C 16,1 C 6,4 km/h (2 Bft) 98,00 %
15.10.2016 18:04 16,0 C 77 % 1014,8 hPa 0,0 l/m 5,1 km/h (1 Bft) W-SW 252 2 min 0,000 mm 0,0 UV-I 9 W/m 12,0 C 16,0 C 6,4 km/h (2 Bft) 97,62 %
15.10.2016 18:06 15,9 C 78 % 1014,8 hPa 0,0 l/m 4,5 km/h (1 Bft) W-SW 258 0 min 0,000 mm 0,0 UV-I 8 W/m 12,1 C 15,9 C 6,4 km/h (2 Bft) 98,00 %
15.10.2016 18:08 15,8 C 78 % 1014,8 hPa 0,0 l/m 3,9 km/h (1 Bft) W 273 0 min 0,000 mm 0,0 UV-I 7 W/m 12,0 C 15,8 C 4,8 km/h (1 Bft) 100,00 %
15.10.2016 18:10 15,8 C 78 % 1014,8 hPa 0,0 l/m 4,5 km/h (1 Bft) W-SW 250 0 min 0,000 mm 0,0 UV-I 5 W/m 12,0 C 15,8 C 6,4 km/h (2 Bft) 100,00 %
15.10.2016 18:12 15,8 C 78 % 1014,9 hPa 0,0 l/m 2,9 km/h (1 Bft) W-SW 254 0 min 0,000 mm 0,0 UV-I 5 W/m 12,0 C 15,8 C 4,8 km/h (1 Bft) 100,00 %
15.10.2016 18:14 15,7 C 78 % 1014,9 hPa 0,0 l/m 3,6 km/h (1 Bft) W-SW 246 0 min 0,000 mm 0,0 UV-I 2 W/m 11,9 C 15,7 C 6,4 km/h (2 Bft) 96,23 %
15.10.2016 18:16 15,7 C 78 % 1014,9 hPa 0,0 l/m 3,4 km/h (1 Bft) W-SW 246 0 min 0,000 mm 0,0 UV-I 0 W/m 11,9 C 15,7 C 4,8 km/h (1 Bft) 100,00 %
15.10.2016 18:18 15,7 C 78 % 1014,9 hPa 0,0 l/m 3,1 km/h (1 Bft) W-SW 244 0 min 0,000 mm 0,0 UV-I 0 W/m 11,9 C 15,7 C 4,8 km/h (1 Bft) 100,00 %
15.10.2016 18:20 15,6 C 79 % 1014,9 hPa 0,0 l/m 2,8 km/h (1 Bft) W-SW 244 0 min 0,000 mm 0,0 UV-I 0 W/m 12,0 C 15,6 C 4,8 km/h (1 Bft) 100,00 %
15.10.2016 18:22 15,6 C 79 % 1015,0 hPa 0,0 l/m 3,1 km/h (1 Bft) W-SW 244 0 min 0,000 mm 0,0 UV-I 0 W/m 12,0 C 15,6 C 4,8 km/h (1 Bft) 100,00 %
15.10.2016 18:24 15,5 C 78 % 1015,0 hPa 0,0 l/m 2,6 km/h (1 Bft) W-SW 244 0 min 0,000 mm 0,0 UV-I 0 W/m 11,7 C 15,5 C 3,2 km/h (1 Bft) 100,00 %
15.10.2016 18:26 15,4 C 79 % 1015,0 hPa 0,0 l/m 2,9 km/h (1 Bft) W-SW 244 0 min 0,000 mm 0,0 UV-I 0 W/m 11,8 C 15,4 C 4,8 km/h (1 Bft) 100,00 %
15.10.2016 18:28 15,4 C 79 % 1015,0 hPa 0,0 l/m 3,4 km/h (1 Bft) W-SW 241 0 min 0,000 mm 0,0 UV-I 0 W/m 11,8 C 15,4 C 6,4 km/h (2 Bft) 100,00 %
15.10.2016 18:30 15,4 C 79 % 1015,0 hPa 0,0 l/m 3,5 km/h (1 Bft) W-SW 241 0 min 0,000 mm 0,0 UV-I 0 W/m 11,8 C 15,4 C 4,8 km/h (1 Bft) 100,00 %
15.10.2016 18:32 15,3 C 79 % 1015,0 hPa 0,0 l/m 2,9 km/h (1 Bft) W-SW 241 0 min 0,000 mm 0,0 UV-I 0 W/m 11,7 C 15,3 C 4,8 km/h (1 Bft) 100,00 %
15.10.2016 18:34 15,3 C 80 % 1015,0 hPa 0,0 l/m 3,6 km/h (1 Bft) W-SW 241 0 min 0,000 mm 0,0 UV-I 0 W/m 11,9 C 15,3 C 4,8 km/h (1 Bft) 100,00 %
15.10.2016 18:36 15,2 C 80 % 1015,0 hPa 0,0 l/m 4,1 km/h (1 Bft) W-SW 241 0 min 0,000 mm 0,0 UV-I 0 W/m 11,8 C 15,2 C 4,8 km/h (1 Bft) 100,00 %
15.10.2016 18:38 15,2 C 80 % 1015,0 hPa 0,0 l/m 3,7 km/h (1 Bft) W-SW 241 0 min 0,000 mm 0,0 UV-I 0 W/m 11,8 C 15,2 C 4,8 km/h (1 Bft) 100,00 %
15.10.2016 18:40 15,0 C 82 % 1015,0 hPa 0,0 l/m 3,9 km/h (1 Bft) W-SW 239 0 min 0,000 mm 0,0 UV-I 0 W/m 12,0 C 15,0 C 4,8 km/h (1 Bft) 100,00 %
15.10.2016 18:42 14,8 C 83 % 1015,0 hPa 0,0 l/m 3,9 km/h (1 Bft) W-SW 244 0 min 0,000 mm 0,0 UV-I 0 W/m 11,9 C 14,8 C 6,4 km/h (2 Bft) 100,00 %
15.10.2016 18:44 14,7 C 83 % 1015,0 hPa 0,0 l/m 4,3 km/h (1 Bft) W-SW 244 0 min 0,000 mm 0,0 UV-I 0 W/m 11,8 C 14,7 C 6,4 km/h (2 Bft) 100,00 %
15.10.2016 18:46 14,7 C 83 % 1015,0 hPa 0,0 l/m 5,5 km/h (1 Bft) W-SW 238 0 min 0,000 mm 0,0 UV-I 0 W/m 11,8 C 14,7 C 8,0 km/h (2 Bft) 100,00 %
15.10.2016 18:48 14,7 C 83 % 1015,0 hPa 0,0 l/m 5,5 km/h (1 Bft) SW 236 0 min 0,000 mm 0,0 UV-I 0 W/m 11,8 C 14,7 C 8,0 km/h (2 Bft) 100,00 %
15.10.2016 18:50 14,8 C 82 % 1015,0 hPa 0,0 l/m 4,4 km/h (1 Bft) W-SW 252 0 min 0,000 mm 0,0 UV-I 0 W/m 11,8 C 14,8 C 6,4 km/h (2 Bft) 100,00 %
15.10.2016 18:53 14,8 C 82 % 1015,1 hPa 0,0 l/m 4,2 km/h (1 Bft) W-SW 248 0 min 0,000 mm 0,0 UV-I 0 W/m 11,8 C 14,8 C 6,4 km/h (2 Bft) 98,44 %
15.10.2016 18:54 14,8 C 82 % 1015,1 hPa 0,0 l/m 3,4 km/h (1 Bft) W-SW 248 0 min 0,000 mm 0,0 UV-I 0 W/m 11,8 C 14,8 C 4,8 km/h (1 Bft) 100,00 %
15.10.2016 18:56 14,8 C 82 % 1015,2 hPa 0,0 l/m 3,5 km/h (1 Bft) W-SW 247 0 min 0,000 mm 0,0 UV-I 0 W/m 11,8 C 14,8 C 4,8 km/h (1 Bft) 100,00 %
15.10.2016 18:58 14,8 C 82 % 1015,2 hPa 0,0 l/m 3,4 km/h (1 Bft) W-SW 250 0 min 0,000 mm 0,0 UV-I 0 W/m 11,8 C 14,8 C 4,8 km/h (1 Bft) 98,00 %
15.10.2016 19:00 14,8 C 82 % 1015,2 hPa 0,0 l/m 3,0 km/h (1 Bft) W-SW 250 0 min 0,026 mm 0,0 UV-I 0 W/m 11,8 C 14,8 C 4,8 km/h (1 Bft) 94,00 %
15.10.2016 19:03 14,9 C 81 % 1015,2 hPa 0,0 l/m 3,3 km/h (1 Bft) W-SW 239 0 min 0,000 mm 0,0 UV-I 0 W/m 11,7 C 14,9 C 4,8 km/h (1 Bft) 100,00 %
15.10.2016 19:04 14,9 C 81 % 1015,2 hPa 0,0 l/m 4,1 km/h (1 Bft) W-SW 239 0 min 0,000 mm 0,0 UV-I 0 W/m 11,7 C 14,9 C 4,8 km/h (1 Bft) 100,00 %
15.10.2016 19:06 14,9 C 81 % 1015,3 hPa 0,0 l/m 4,2 km/h (1 Bft) W-SW 238 0 min 0,000 mm 0,0 UV-I 0 W/m 11,7 C 14,9 C 6,4 km/h (2 Bft) 97,87 %
15.10.2016 19:08 14,9 C 81 % 1015,4 hPa 0,0 l/m 5,1 km/h (1 Bft) SW 235 0 min 0,000 mm 0,0 UV-I 0 W/m 11,7 C 14,9 C 8,0 km/h (2 Bft) 100,00 %
15.10.2016 19:10 14,9 C 81 % 1015,4 hPa 0,0 l/m 4,8 km/h (1 Bft) SW 234 0 min 0,000 mm 0,0 UV-I 0 W/m 11,7 C 14,9 C 6,4 km/h (2 Bft) 100,00 %
15.10.2016 19:12 14,9 C 81 % 1015,4 hPa 0,0 l/m 4,0 km/h (1 Bft) S-SW 208 0 min 0,000 mm 0,0 UV-I 0 W/m 11,7 C 14,9 C 6,4 km/h (2 Bft) 100,00 %
15.10.2016 19:14 14,9 C 81 % 1015,5 hPa 0,0 l/m 4,3 km/h (1 Bft) S-SW 206 0 min 0,000 mm 0,0 UV-I 0 W/m 11,7 C 14,9 C 6,4 km/h (2 Bft) 100,00 %
15.10.2016 19:16 14,8 C 82 % 1015,5 hPa 0,0 l/m 2,3 km/h (1 Bft) S-SW 206 0 min 0,000 mm 0,0 UV-I 0 W/m 11,8 C 14,8 C 3,2 km/h (1 Bft) 100,00 %
15.10.2016 19:18 14,7 C 83 % 1015,5 hPa 0,0 l/m 1,3 km/h (1 Bft) S-SW 206 0 min 0,000 mm 0,0 UV-I 0 W/m 11,8 C 14,7 C 3,2 km/h (1 Bft) 96,67 %
15.10.2016 19:20 14,6 C 83 % 1015,6 hPa 0,0 l/m 0,5 km/h (0 Bft) S-SW 206 0 min 0,000 mm 0,0 UV-I 0 W/m 11,7 C 14,6 C 1,6 km/h (1 Bft) 100,00 %
15.10.2016 19:22 14,4 C 84 % 1015,6 hPa 0,0 l/m 2,6 km/h (1 Bft) S-SW 206 0 min 0,000 mm 0,0 UV-I 0 W/m 11,7 C 14,4 C 4,8 km/h (1 Bft) 100,00 %
15.10.2016 19:24 14,5 C 84 % 1015,7 hPa 0,0 l/m 1,8 km/h (1 Bft) S-SW 198 0 min 0,000 mm 0,0 UV-I 0 W/m 11,8 C 14,5 C 3,2 km/h (1 Bft) 100,00 %
15.10.2016 19:26 14,5 C 84 % 1015,7 hPa 0,0 l/m 2,5 km/h (1 Bft) S-SW 198 0 min 0,000 mm 0,0 UV-I 0 W/m 11,8 C 14,5 C 3,2 km/h (1 Bft) 98,28 %
15.10.2016 19:28 14,5 C 84 % 1015,8 hPa 0,0 l/m 2,2 km/h (1 Bft) S-SW 198 0 min 0,000 mm 0,0 UV-I 0 W/m 11,8 C 14,5 C 3,2 km/h (1 Bft) 97,92 %
15.10.2016 19:30 14,5 C 84 % 1015,8 hPa 0,0 l/m 3,0 km/h (1 Bft) S-SW 197 0 min 0,000 mm 0,0 UV-I 0 W/m 11,8 C 14,5 C 6,4 km/h (2 Bft) 100,00 %
15.10.2016 19:32 14,5 C 84 % 1015,9 hPa 0,0 l/m 2,6 km/h (1 Bft) S-SW 196 0 min 0,000 mm 0,0 UV-I 0 W/m 11,8 C 14,5 C 4,8 km/h (1 Bft) 100,00 %
15.10.2016 19:34 14,6 C 84 % 1015,9 hPa 0,0 l/m 2,6 km/h (1 Bft) S-SW 196 0 min 0,000 mm 0,0 UV-I 0 W/m 11,9 C 14,6 C 4,8 km/h (1 Bft) 100,00 %
15.10.2016 19:36 14,6 C 84 % 1015,9 hPa 0,0 l/m 2,6 km/h (1 Bft) S-SW 196 0 min 0,000 mm 0,0 UV-I 0 W/m 11,9 C 14,6 C 4,8 km/h (1 Bft) 93,62 %
15.10.2016 19:38 14,6 C 84 % 1015,9 hPa 0,0 l/m 2,6 km/h (1 Bft) S-SW 196 0 min 0,000 mm 0,0 UV-I 0 W/m 11,9 C 14,6 C 4,8 km/h (1 Bft) 97,56 %
15.10.2016 19:40 14,6 C 85 % 1016,0 hPa 0,0 l/m 2,7 km/h (1 Bft) S-SW 196 0 min 0,000 mm 0,0 UV-I 0 W/m 12,1 C 14,6 C 4,8 km/h (1 Bft) 95,74 %
15.10.2016 19:42 14,5 C 85 % 1016,0 hPa 0,0 l/m 2,4 km/h (1 Bft) S-SW 196 0 min 0,000 mm 0,0 UV-I 0 W/m 12,0 C 14,5 C 6,4 km/h (2 Bft) 97,87 %
15.10.2016 19:44 14,5 C 85 % 1016,0 hPa 0,0 l/m 2,6 km/h (1 Bft) S-SW 196 0 min 0,000 mm 0,0 UV-I 0 W/m 12,0 C 14,5 C 4,8 km/h (1 Bft) 94,29 %
15.10.2016 19:46 14,4 C 85 % 1016,0 hPa 0,0 l/m 1,1 km/h (1 Bft) S-SW 196 0 min 0,000 mm 0,0 UV-I 0 W/m 11,9 C 14,4 C 1,6 km/h (1 Bft) 98,11 %
15.10.2016 19:48 14,4 C 85 % 1016,1 hPa 0,0 l/m 0,7 km/h (0 Bft) S-SW 196 0 min 0,000 mm 0,0 UV-I 0 W/m 11,9 C 14,4 C 1,6 km/h (1 Bft) 98,21 %
15.10.2016 19:50 14,4 C 85 % 1016,1 hPa 0,0 l/m 1,0 km/h (0 Bft) S-SW 196 0 min 0,000 mm 0,0 UV-I 0 W/m 11,9 C 14,4 C 1,6 km/h (1 Bft) 97,87 %
15.10.2016 19:52 14,4 C 85 % 1016,1 hPa 0,0 l/m 1,3 km/h (1 Bft) S-SW 196 0 min 0,000 mm 0,0 UV-I 0 W/m 11,9 C 14,4 C 3,2 km/h (1 Bft) 94,00 %
15.10.2016 19:54 14,5 C 85 % 1016,1 hPa 0,0 l/m 1,3 km/h (1 Bft) S-SW 196 0 min 0,000 mm 0,0 UV-I 0 W/m 12,0 C 14,5 C 3,2 km/h (1 Bft) 97,87 %
15.10.2016 19:56 14,6 C 84 % 1016,1 hPa 0,0 l/m 1,9 km/h (1 Bft) S-SW 196 0 min 0,000 mm 0,0 UV-I 0 W/m 11,9 C 14,6 C 3,2 km/h (1 Bft) 97,87 %
15.10.2016 19:58 14,7 C 84 % 1016,1 hPa 0,0 l/m 2,0 km/h (1 Bft) S-SW 196 0 min 0,000 mm 0,0 UV-I 0 W/m 12,0 C 14,7 C 4,8 km/h (1 Bft) 97,56 %
15.10.2016 20:00 14,7 C 84 % 1016,1 hPa 0,0 l/m 2,6 km/h (1 Bft) S-SW 196 0 min 0,000 mm 0,0 UV-I 0 W/m 12,0 C 14,7 C 4,8 km/h (1 Bft) 93,62 %
15.10.2016 20:03 14,7 C 83 % 1016,1 hPa 0,0 l/m 3,0 km/h (1 Bft) S-SW 196 0 min 0,000 mm 0,0 UV-I 0 W/m 11,8 C 14,7 C 4,8 km/h (1 Bft) 96,10 %
15.10.2016 20:04 14,7 C 83 % 1016,1 hPa 0,0 l/m 2,3 km/h (1 Bft) S-SW 196 0 min 0,000 mm 0,0 UV-I 0 W/m 11,8 C 14,7 C 4,8 km/h (1 Bft) 95,65 %
15.10.2016 20:06 14,7 C 84 % 1016,1 hPa 0,0 l/m 2,5 km/h (1 Bft) S-SW 196 0 min 0,000 mm 0,0 UV-I 0 W/m 12,0 C 14,7 C 4,8 km/h (1 Bft) 97,44 %
15.10.2016 20:08 14,7 C 84 % 1016,1 hPa 0,0 l/m 1,1 km/h (1 Bft) S-SW 196 0 min 0,000 mm 0,0 UV-I 0 W/m 12,0 C 14,7 C 3,2 km/h (1 Bft) 97,87 %
15.10.2016 20:10 14,6 C 84 % 1016,1 hPa 0,0 l/m 0,3 km/h (0 Bft) S-SW 196 0 min 0,000 mm 0,0 UV-I 0 W/m 11,9 C 14,6 C 1,6 km/h (1 Bft) 97,87 %
15.10.2016 20:12 14,4 C 84 % 1016,1 hPa 0,0 l/m 2,3 km/h (1 Bft) S-SW 196 0 min 0,000 mm 0,0 UV-I 0 W/m 11,7 C 14,4 C 4,8 km/h (1 Bft) 98,11 %
15.10.2016 20:14 14,4 C 85 % 1016,1 hPa 0,0 l/m 1,3 km/h (1 Bft) S-SW 196 0 min 0,000 mm 0,0 UV-I 0 W/m 11,9 C 14,4 C 3,2 km/h (1 Bft) 100,00 %
15.10.2016 20:16 14,3 C 85 % 1016,2 hPa 0,0 l/m 1,1 km/h (1 Bft) S-SW 196 0 min 0,000 mm 0,0 UV-I 0 W/m 11,8 C 14,3 C 3,2 km/h (1 Bft) 100,00 %
15.10.2016 20:18 14,2 C 85 % 1016,2 hPa 0,0 l/m 0,8 km/h (0 Bft) S-SW 196 0 min 0,000 mm 0,0 UV-I 0 W/m 11,7 C 14,2 C 1,6 km/h (1 Bft) 98,00 %
15.10.2016 20:20 14,2 C 85 % 1016,2 hPa 0,0 l/m 0,7 km/h (0 Bft) S-SW 196 0 min 0,000 mm 0,0 UV-I 0 W/m 11,7 C 14,2 C 3,2 km/h (1 Bft) 97,37 %
15.10.2016 20:22 14,2 C 85 % 1016,2 hPa 0,0 l/m 0,6 km/h (0 Bft) S-SW 196 0 min 0,000 mm 0,0 UV-I 0 W/m 11,7 C 14,2 C 1,6 km/h (1 Bft) 100,00 %
15.10.2016 20:24 14,2 C 85 % 1016,2 hPa 0,0 l/m 1,2 km/h (1 Bft) S-SW 196 0 min 0,000 mm 0,0 UV-I 0 W/m 11,7 C 14,2 C 3,2 km/h (1 Bft) 100,00 %
15.10.2016 20:26 14,0 C 86 % 1016,2 hPa 0,0 l/m 1,0 km/h (0 Bft) S-SW 196 0 min 0,000 mm 0,0 UV-I 0 W/m 11,7 C 14,0 C 3,2 km/h (1 Bft) 98,21 %
15.10.2016 20:28 13,9 C 86 % 1016,3 hPa 0,0 l/m 0,0 km/h (0 Bft) S-SW 196 0 min 0,000 mm 0,0 UV-I 0 W/m 11,6 C 13,9 C 1,6 km/h (1 Bft) 95,74 %
15.10.2016 20:30 13,8 C 86 % 1016,1 hPa 0,0 l/m 0,0 km/h (0 Bft) S-SW 196 0 min 0,000 mm 0,0 UV-I 0 W/m 11,5 C 13,8 C 1,6 km/h (1 Bft) 100,00 %
15.10.2016 20:32 13,7 C 86 % 1016,3 hPa 0,0 l/m 0,1 km/h (0 Bft) S-SW 196 0 min 0,000 mm 0,0 UV-I 0 W/m 11,4 C 13,7 C 1,6 km/h (1 Bft) 100,00 %
15.10.2016 20:34 13,7 C 87 % 1016,2 hPa 0,0 l/m 0,4 km/h (0 Bft) S-SW 196 0 min 0,000 mm 0,0 UV-I 0 W/m 11,6 C 13,7 C 1,6 km/h (1 Bft) 97,14 %
15.10.2016 20:36 13,7 C 87 % 1016,2 hPa 0,0 l/m 0,3 km/h (0 Bft) S-SW 196 0 min 0,000 mm 0,0 UV-I 0 W/m 11,6 C 13,7 C 1,6 km/h (1 Bft) 100,00 %
15.10.2016 20:38 13,6 C 87 % 1016,2 hPa 0,0 l/m 0,5 km/h (0 Bft) S-SW 196 0 min 0,000 mm 0,0 UV-I 0 W/m 11,5 C 13,6 C 1,6 km/h (1 Bft) 100,00 %
15.10.2016 20:40 13,6 C 87 % 1016,3 hPa 0,0 l/m 1,6 km/h (1 Bft) S-SW 196 0 min 0,000 mm 0,0 UV-I 0 W/m 11,5 C 13,6 C 3,2 km/h (1 Bft) 98,18 %
15.10.2016 20:42 13,6 C 88 % 1016,3 hPa 0,0 l/m 0,3 km/h (0 Bft) S-SW 196 0 min 0,000 mm 0,0 UV-I 0 W/m 11,6 C 13,6 C 1,6 km/h (1 Bft) 100,00 %
15.10.2016 20:44 13,5 C 87 % 1016,3 hPa 0,0 l/m 0,8 km/h (0 Bft) S-SW 196 0 min 0,000 mm 0,0 UV-I 0 W/m 11,4 C 13,5 C 1,6 km/h (1 Bft) 100,00 %
15.10.2016 20:46 13,4 C 87 % 1016,3 hPa 0,0 l/m 0,1 km/h (0 Bft) S-SW 196 0 min 0,000 mm 0,0 UV-I 0 W/m 11,3 C 13,4 C 1,6 km/h (1 Bft) 100,00 %
15.10.2016 20:48 13,3 C 88 % 1016,4 hPa 0,0 l/m 0,5 km/h (0 Bft) S-SW 196 0 min 0,000 mm 0,0 UV-I 0 W/m 11,4 C 13,3 C 1,6 km/h (1 Bft) 97,37 %
15.10.2016 20:50 13,3 C 88 % 1016,3 hPa 0,0 l/m 1,0 km/h (0 Bft) S-SW 196 0 min 0,000 mm 0,0 UV-I 0 W/m 11,4 C 13,3 C 1,6 km/h (1 Bft) 100,00 %
15.10.2016 20:52 13,2 C 89 % 1016,4 hPa 0,0 l/m 1,9 km/h (1 Bft) S-SW 196 0 min 0,000 mm 0,0 UV-I 0 W/m 11,4 C 13,2 C 3,2 km/h (1 Bft) 100,00 %
15.10.2016 20:54 13,2 C 89 % 1016,4 hPa 0,0 l/m 2,0 km/h (1 Bft) S-SW 196 0 min 0,000 mm 0,0 UV-I 0 W/m 11,4 C 13,2 C 3,2 km/h (1 Bft) 96,23 %
15.10.2016 20:56 13,1 C 89 % 1016,4 hPa 0,0 l/m 1,4 km/h (1 Bft) S-SW 196 0 min 0,000 mm 0,0 UV-I 0 W/m 11,3 C 13,1 C 3,2 km/h (1 Bft) 100,00 %
15.10.2016 20:58 13,0 C 89 % 1016,4 hPa 0,0 l/m 2,1 km/h (1 Bft) S-SW 196 0 min 0,000 mm 0,0 UV-I 0 W/m 11,2 C 13,0 C 3,2 km/h (1 Bft) 100,00 %
15.10.2016 21:00 12,9 C 89 % 1016,4 hPa 0,0 l/m 1,0 km/h (0 Bft) S-SW 196 0 min 0,000 mm 0,0 UV-I 0 W/m 11,1 C 12,9 C 1,6 km/h (1 Bft) 96,00 %
15.10.2016 21:03 12,7 C 90 % 1016,5 hPa 0,0 l/m 0,7 km/h (0 Bft) S-SW 196 0 min 0,000 mm 0,0 UV-I 0 W/m 11,1 C 12,7 C 1,6 km/h (1 Bft) 100,00 %
15.10.2016 21:04 12,7 C 90 % 1016,5 hPa 0,0 l/m 0,8 km/h (0 Bft) S-SW 196 0 min 0,000 mm 0,0 UV-I 0 W/m 11,1 C 12,7 C 1,6 km/h (1 Bft) 100,00 %
15.10.2016 21:06 12,7 C 90 % 1016,5 hPa 0,0 l/m 1,4 km/h (1 Bft) S-SW 196 0 min 0,000 mm 0,0 UV-I 0 W/m 11,1 C 12,7 C 3,2 km/h (1 Bft) 97,87 %
15.10.2016 21:08 12,7 C 91 % 1016,5 hPa 0,0 l/m 1,3 km/h (1 Bft) S-SW 196 0 min 0,000 mm 0,0 UV-I 0 W/m 11,3 C 12,7 C 3,2 km/h (1 Bft) 100,00 %
15.10.2016 21:10 12,7 C 90 % 1016,5 hPa 0,0 l/m 0,5 km/h (0 Bft) S-SW 196 0 min 0,000 mm 0,0 UV-I 0 W/m 11,1 C 12,7 C 1,6 km/h (1 Bft) 97,87 %
15.10.2016 21:12 12,8 C 90 % 1016,5 hPa 0,0 l/m 1,7 km/h (1 Bft) S-SW 196 0 min 0,000 mm 0,0 UV-I 0 W/m 11,2 C 12,8 C 3,2 km/h (1 Bft) 97,56 %
15.10.2016 21:14 12,8 C 90 % 1016,6 hPa 0,0 l/m 3,0 km/h (1 Bft) S-SW 196 0 min 0,000 mm 0,0 UV-I 0 W/m 11,2 C 12,8 C 3,2 km/h (1 Bft) 100,00 %
15.10.2016 21:16 12,8 C 90 % 1016,6 hPa 0,0 l/m 2,7 km/h (1 Bft) S-SW 196 0 min 0,000 mm 0,0 UV-I 0 W/m 11,2 C 12,8 C 3,2 km/h (1 Bft) 100,00 %
15.10.2016 21:18 12,8 C 90 % 1016,6 hPa 0,0 l/m 1,9 km/h (1 Bft) S-SW 196 0 min 0,000 mm 0,0 UV-I 0 W/m 11,2 C 12,8 C 3,2 km/h (1 Bft) 100,00 %
15.10.2016 21:20 12,7 C 90 % 1016,6 hPa 0,0 l/m 1,8 km/h (1 Bft) S-SW 196 0 min 0,000 mm 0,0 UV-I 0 W/m 11,1 C 12,7 C 3,2 km/h (1 Bft) 100,00 %
15.10.2016 21:22 12,6 C 90 % 1016,7 hPa 0,0 l/m 0,8 km/h (0 Bft) S-SW 196 0 min 0,000 mm 0,0 UV-I 0 W/m 11,0 C 12,6 C 1,6 km/h (1 Bft) 100,00 %
15.10.2016 21:24 12,6 C 91 % 1016,7 hPa 0,0 l/m 1,4 km/h (1 Bft) S-SW 196 0 min 0,000 mm 0,0 UV-I 0 W/m 11,2 C 12,6 C 3,2 km/h (1 Bft) 97,37 %
15.10.2016 21:26 12,6 C 91 % 1016,7 hPa 0,0 l/m 6,1 km/h (2 Bft) O-NO 68 0 min 0,000 mm 0,0 UV-I 0 W/m 11,2 C 12,6 C 11,3 km/h (2 Bft) 100,00 %
15.10.2016 21:28 12,7 C 91 % 1016,7 hPa 0,0 l/m 8,2 km/h (2 Bft) O-NO 59 0 min 0,000 mm 0,0 UV-I 0 W/m 11,3 C 11,6 C 11,3 km/h (2 Bft) 100,00 %
15.10.2016 21:30 12,8 C 91 % 1016,8 hPa 0,0 l/m 7,4 km/h (2 Bft) O-NO 63 0 min 0,000 mm 0,0 UV-I 0 W/m 11,4 C 12,2 C 9,7 km/h (2 Bft) 100,00 %
15.10.2016 21:32 12,8 C 91 % 1016,8 hPa 0,0 l/m 5,6 km/h (1 Bft) O-NO 65 0 min 0,000 mm 0,0 UV-I 0 W/m 11,4 C 12,8 C 8,0 km/h (2 Bft) 100,00 %
15.10.2016 21:34 12,8 C 91 % 1016,9 hPa 0,0 l/m 3,6 km/h (1 Bft) O-NO 64 0 min 0,000 mm 0,0 UV-I 0 W/m 11,4 C 12,8 C 6,4 km/h (2 Bft) 100,00 %
15.10.2016 21:36 12,8 C 90 % 1016,9 hPa 0,0 l/m 2,1 km/h (1 Bft) O-NO 64 0 min 0,000 mm 0,0 UV-I 0 W/m 11,2 C 12,8 C 3,2 km/h (1 Bft) 100,00 %
15.10.2016 21:38 12,7 C 90 % 1016,9 hPa 0,0 l/m 0,3 km/h (0 Bft) O-NO 64 0 min 0,000 mm 0,0 UV-I 0 W/m 11,1 C 12,7 C 1,6 km/h (1 Bft) 100,00 %
15.10.2016 21:40 12,6 C 91 % 1016,9 hPa 0,0 l/m 0,2 km/h (0 Bft) O-NO 64 0 min 0,000 mm 0,0 UV-I 0 W/m 11,2 C 12,6 C 1,6 km/h (1 Bft) 95,74 %
15.10.2016 21:42 12,4 C 91 % 1016,9 hPa 0,0 l/m 0,4 km/h (0 Bft) O-NO 64 0 min 0,000 mm 0,0 UV-I 0 W/m 11,0 C 12,4 C 1,6 km/h (1 Bft) 94,00 %
15.10.2016 21:44 12,3 C 91 % 1017,0 hPa 0,0 l/m 0,3 km/h (0 Bft) O-NO 64 0 min 0,000 mm 0,0 UV-I 0 W/m 10,9 C 12,3 C 1,6 km/h (1 Bft) 98,00 %
15.10.2016 21:46 12,2 C 91 % 1017,0 hPa 0,0 l/m 1,0 km/h (0 Bft) O-NO 64 0 min 0,000 mm 0,0 UV-I 0 W/m 10,8 C 12,2 C 1,6 km/h (1 Bft) 96,00 %
15.10.2016 21:48 12,1 C 92 % 1017,0 hPa 0,0 l/m 0,6 km/h (0 Bft) O-NO 64 0 min 0,000 mm 0,0 UV-I 0 W/m 10,8 C 12,1 C 1,6 km/h (1 Bft) 97,87 %
15.10.2016 21:50 12,0 C 92 % 1017,0 hPa 0,0 l/m 1,4 km/h (1 Bft) O-NO 64 0 min 0,000 mm 0,0 UV-I 0 W/m 10,7 C 12,0 C 3,2 km/h (1 Bft) 97,37 %
15.10.2016 21:52 11,9 C 92 % 1017,1 hPa 0,0 l/m 1,8 km/h (1 Bft) O-NO 64 0 min 0,000 mm 0,0 UV-I 0 W/m 10,6 C 11,9 C 3,2 km/h (1 Bft) 97,87 %
15.10.2016 21:54 11,8 C 92 % 1017,1 hPa 0,0 l/m 0,9 km/h (0 Bft) O-NO 64 0 min 0,000 mm 0,0 UV-I 0 W/m 10,5 C 11,8 C 1,6 km/h (1 Bft) 94,44 %
15.10.2016 21:56 11,8 C 93 % 1017,1 hPa 0,0 l/m 0,2 km/h (0 Bft) O-NO 64 0 min 0,000 mm 0,0 UV-I 0 W/m 10,7 C 11,8 C 1,6 km/h (1 Bft) 96,88 %
15.10.2016 21:58 11,7 C 93 % 1017,2 hPa 0,0 l/m 0,2 km/h (0 Bft) O-NO 64 0 min 0,000 mm 0,0 UV-I 0 W/m 10,6 C 11,7 C 1,6 km/h (1 Bft) 98,00 %
15.10.2016 22:00 11,7 C 93 % 1017,2 hPa 0,0 l/m 0,4 km/h (0 Bft) O-NO 64 0 min 0,000 mm 0,0 UV-I 0 W/m 10,6 C 11,7 C 1,6 km/h (1 Bft) 97,44 %
15.10.2016 22:02 11,6 C 93 % 1017,2 hPa 0,0 l/m 0,5 km/h (0 Bft) O-NO 64 0 min 0,000 mm 0,0 UV-I 0 W/m 10,5 C 11,6 C 1,6 km/h (1 Bft) 98,00 %
15.10.2016 22:04 11,7 C 93 % 1017,2 hPa 0,0 l/m 0,0 km/h (0 Bft) O-NO 64 0 min 0,000 mm 0,0 UV-I 0 W/m 10,6 C 11,7 C 0,0 km/h (0 Bft) 98,00 %
15.10.2016 22:06 11,7 C 94 % 1017,1 hPa 0,0 l/m 0,0 km/h (0 Bft) O-NO 64 0 min 0,000 mm 0,0 UV-I 0 W/m 10,8 C 11,7 C 0,0 km/h (0 Bft) 97,87 %
15.10.2016 22:08 11,7 C 94 % 1017,1 hPa 0,0 l/m 0,0 km/h (0 Bft) O-NO 64 0 min 0,000 mm 0,0 UV-I 0 W/m 10,8 C 11,7 C 0,0 km/h (0 Bft) 97,87 %
15.10.2016 22:10 11,7 C 94 % 1017,1 hPa 0,0 l/m 0,4 km/h (0 Bft) O-NO 64 0 min 0,000 mm 0,0 UV-I 0 W/m 10,8 C 11,7 C 1,6 km/h (1 Bft) 97,37 %
15.10.2016 22:12 11,8 C 94 % 1017,1 hPa 0,0 l/m 2,4 km/h (1 Bft) O-NO 64 0 min 0,000 mm 0,0 UV-I 0 W/m 10,9 C 11,8 C 3,2 km/h (1 Bft) 96,23 %
15.10.2016 22:14 11,8 C 94 % 1017,1 hPa 0,0 l/m 3,0 km/h (1 Bft) O 84 0 min 0,000 mm 0,0 UV-I 0 W/m 10,9 C 11,8 C 4,8 km/h (1 Bft) 100,00 %
15.10.2016 22:16 11,7 C 93 % 1017,1 hPa 0,0 l/m 2,1 km/h (1 Bft) O 84 0 min 0,000 mm 0,0 UV-I 0 W/m 10,6 C 11,7 C 3,2 km/h (1 Bft) 97,87 %
15.10.2016 22:18 11,7 C 94 % 1017,1 hPa 0,0 l/m 2,1 km/h (1 Bft) O 84 0 min 0,000 mm 0,0 UV-I 0 W/m 10,8 C 11,7 C 3,2 km/h (1 Bft) 100,00 %
15.10.2016 22:20 11,6 C 93 % 1017,1 hPa 0,0 l/m 1,4 km/h (1 Bft) O 90 0 min 0,000 mm 0,0 UV-I 0 W/m 10,5 C 11,6 C 3,2 km/h (1 Bft) 100,00 %
15.10.2016 22:22 11,6 C 94 % 1017,2 hPa 0,0 l/m 1,6 km/h (1 Bft) O 96 0 min 0,000 mm 0,0 UV-I 0 W/m 10,7 C 11,6 C 3,2 km/h (1 Bft) 100,00 %
15.10.2016 22:24 11,7 C 94 % 1017,2 hPa 0,0 l/m 2,2 km/h (1 Bft) O 98 0 min 0,000 mm 0,0 UV-I 0 W/m 10,8 C 11,7 C 3,2 km/h (1 Bft) 94,29 %
15.10.2016 22:26 11,7 C 94 % 1017,2 hPa 0,0 l/m 0,6 km/h (0 Bft) O 98 0 min 0,000 mm 0,0 UV-I 0 W/m 10,8 C 11,7 C 1,6 km/h (1 Bft) 98,11 %
15.10.2016 22:28 11,7 C 94 % 1017,2 hPa 0,0 l/m 0,5 km/h (0 Bft) O 98 0 min 0,000 mm 0,0 UV-I 0 W/m 10,8 C 11,7 C 1,6 km/h (1 Bft) 98,00 %
15.10.2016 22:30 11,7 C 94 % 1017,3 hPa 0,0 l/m 2,9 km/h (1 Bft) O 98 0 min 0,000 mm 0,0 UV-I 0 W/m 10,8 C 11,7 C 3,2 km/h (1 Bft) 100,00 %
15.10.2016 22:32 11,7 C 94 % 1017,3 hPa 0,0 l/m 3,3 km/h (1 Bft) O 101 0 min 0,000 mm 0,0 UV-I 0 W/m 10,8 C 11,7 C 4,8 km/h (1 Bft) 100,00 %
15.10.2016 22:34 11,6 C 94 % 1017,3 hPa 0,0 l/m 3,7 km/h (1 Bft) S 171 0 min 0,000 mm 0,0 UV-I 0 W/m 10,7 C 11,6 C 6,4 km/h (2 Bft) 100,00 %
15.10.2016 22:36 11,5 C 94 % 1017,3 hPa 0,0 l/m 4,2 km/h (1 Bft) S 173 0 min 0,000 mm 0,0 UV-I 0 W/m 10,6 C 11,5 C 6,4 km/h (2 Bft) 98,00 %
15.10.2016 22:38 11,4 C 94 % 1017,3 hPa 0,0 l/m 4,0 km/h (1 Bft) S 176 0 min 0,000 mm 0,0 UV-I 0 W/m 10,5 C 11,4 C 4,8 km/h (1 Bft) 100,00 %
15.10.2016 22:40 11,4 C 94 % 1017,3 hPa 0,0 l/m 3,5 km/h (1 Bft) S 176 0 min 0,000 mm 0,0 UV-I 0 W/m 10,5 C 11,4 C 4,8 km/h (1 Bft) 100,00 %
15.10.2016 22:42 11,3 C 94 % 1017,3 hPa 0,0 l/m 3,7 km/h (1 Bft) S 176 0 min 0,000 mm 0,0 UV-I 0 W/m 10,4 C 11,3 C 4,8 km/h (1 Bft) 100,00 %
15.10.2016 22:44 11,3 C 95 % 1017,4 hPa 0,0 l/m 3,8 km/h (1 Bft) S 176 0 min 0,000 mm 0,0 UV-I 0 W/m 10,5 C 11,3 C 4,8 km/h (1 Bft) 98,00 %
15.10.2016 22:46 11,3 C 95 % 1017,4 hPa 0,0 l/m 3,6 km/h (1 Bft) S 178 0 min 0,000 mm 0,0 UV-I 0 W/m 10,5 C 11,3 C 4,8 km/h (1 Bft) 100,00 %
15.10.2016 22:48 11,3 C 95 % 1017,4 hPa 0,0 l/m 3,7 km/h (1 Bft) S 178 0 min 0,000 mm 0,0 UV-I 0 W/m 10,5 C 11,3 C 4,8 km/h (1 Bft) 100,00 %
15.10.2016 22:50 11,2 C 95 % 1017,4 hPa 0,0 l/m 2,4 km/h (1 Bft) S 178 0 min 0,000 mm 0,0 UV-I 0 W/m 10,4 C 11,2 C 3,2 km/h (1 Bft) 97,87 %
15.10.2016 22:52 11,2 C 95 % 1017,4 hPa 0,0 l/m 2,7 km/h (1 Bft) S 178 0 min 0,000 mm 0,0 UV-I 0 W/m 10,4 C 11,2 C 4,8 km/h (1 Bft) 100,00 %
15.10.2016 22:54 11,3 C 95 % 1017,4 hPa 0,0 l/m 4,2 km/h (1 Bft) SW 232 0 min 0,000 mm 0,0 UV-I 0 W/m 10,5 C 11,3 C 6,4 km/h (2 Bft) 96,23 %
15.10.2016 22:56 11,3 C 95 % 1017,5 hPa 0,0 l/m 3,4 km/h (1 Bft) SW 232 0 min 0,000 mm 0,0 UV-I 0 W/m 10,5 C 11,3 C 4,8 km/h (1 Bft) 95,74 %
15.10.2016 22:58 11,3 C 95 % 1017,5 hPa 0,0 l/m 3,2 km/h (1 Bft) SW 215 0 min 0,000 mm 0,0 UV-I 0 W/m 10,5 C 11,3 C 4,8 km/h (1 Bft) 100,00 %
15.10.2016 23:00 11,4 C 95 % 1017,5 hPa 0,0 l/m 4,4 km/h (1 Bft) SW 215 0 min 0,000 mm 0,0 UV-I 0 W/m 10,6 C 11,4 C 4,8 km/h (1 Bft) 100,00 %
15.10.2016 23:02 11,4 C 95 % 1017,5 hPa 0,0 l/m 3,5 km/h (1 Bft) SW 215 0 min 0,000 mm 0,0 UV-I 0 W/m 10,6 C 11,4 C 4,8 km/h (1 Bft) 100,00 %
15.10.2016 23:04 11,4 C 95 % 1017,5 hPa 0,0 l/m 1,9 km/h (1 Bft) SW 215 0 min 0,000 mm 0,0 UV-I 0 W/m 10,6 C 11,4 C 3,2 km/h (1 Bft) 100,00 %
15.10.2016 23:06 11,4 C 95 % 1017,5 hPa 0,0 l/m 2,2 km/h (1 Bft) SW 215 0 min 0,000 mm 0,0 UV-I 0 W/m 10,6 C 11,4 C 3,2 km/h (1 Bft) 97,56 %
15.10.2016 23:08 11,4 C 94 % 1017,6 hPa 0,0 l/m 1,6 km/h (1 Bft) SW 215 0 min 0,000 mm 0,0 UV-I 0 W/m 10,5 C 11,4 C 3,2 km/h (1 Bft) 97,87 %
15.10.2016 23:10 11,4 C 95 % 1017,6 hPa 0,0 l/m 2,3 km/h (1 Bft) SW 215 0 min 0,000 mm 0,0 UV-I 0 W/m 10,6 C 11,4 C 3,2 km/h (1 Bft) 100,00 %
15.10.2016 23:12 11,4 C 95 % 1017,6 hPa 0,0 l/m 2,9 km/h (1 Bft) SW 215 0 min 0,000 mm 0,0 UV-I 0 W/m 10,6 C 11,4 C 3,2 km/h (1 Bft) 100,00 %
15.10.2016 23:14 11,4 C 94 % 1017,6 hPa 0,0 l/m 2,7 km/h (1 Bft) SW 215 0 min 0,000 mm 0,0 UV-I 0 W/m 10,5 C 11,4 C 3,2 km/h (1 Bft) 98,11 %
15.10.2016 23:16 11,3 C 94 % 1017,6 hPa 0,0 l/m 2,6 km/h (1 Bft) SW 215 0 min 0,000 mm 0,0 UV-I 0 W/m 10,4 C 11,3 C 3,2 km/h (1 Bft) 100,00 %
15.10.2016 23:18 11,3 C 94 % 1017,7 hPa 0,0 l/m 2,4 km/h (1 Bft) SW 215 0 min 0,000 mm 0,0 UV-I 0 W/m 10,4 C 11,3 C 3,2 km/h (1 Bft) 97,44 %
15.10.2016 23:20 11,2 C 94 % 1017,7 hPa 0,0 l/m 2,1 km/h (1 Bft) SW 215 0 min 0,000 mm 0,0 UV-I 0 W/m 10,3 C 11,2 C 3,2 km/h (1 Bft) 100,00 %
15.10.2016 23:22 11,1 C 94 % 1017,7 hPa 0,0 l/m 1,8 km/h (1 Bft) SW 215 0 min 0,000 mm 0,0 UV-I 0 W/m 10,2 C 11,1 C 3,2 km/h (1 Bft) 100,00 %
15.10.2016 23:24 11,0 C 94 % 1017,8 hPa 0,0 l/m 0,7 km/h (0 Bft) SW 215 0 min 0,000 mm 0,0 UV-I 0 W/m 10,1 C 11,0 C 1,6 km/h (1 Bft) 98,33 %
15.10.2016 23:26 11,0 C 94 % 1017,8 hPa 0,0 l/m 0,1 km/h (0 Bft) SW 215 0 min 0,000 mm 0,0 UV-I 0 W/m 10,1 C 11,0 C 1,6 km/h (1 Bft) 100,00 %
15.10.2016 23:28 11,0 C 95 % 1017,8 hPa 0,0 l/m 0,6 km/h (0 Bft) SW 215 0 min 0,000 mm 0,0 UV-I 0 W/m 10,2 C 11,0 C 1,6 km/h (1 Bft) 100,00 %
15.10.2016 23:30 10,9 C 94 % 1017,8 hPa 0,0 l/m 0,3 km/h (0 Bft) SW 215 0 min 0,000 mm 0,0 UV-I 0 W/m 10,0 C 10,9 C 1,6 km/h (1 Bft) 100,00 %
15.10.2016 23:32 10,9 C 95 % 1017,9 hPa 0,0 l/m 0,5 km/h (0 Bft) SW 215 0 min 0,000 mm 0,0 UV-I 0 W/m 10,1 C 10,9 C 1,6 km/h (1 Bft) 100,00 %
15.10.2016 23:34 10,9 C 95 % 1017,9 hPa 0,0 l/m 0,4 km/h (0 Bft) SW 215 0 min 0,000 mm 0,0 UV-I 0 W/m 10,1 C 10,9 C 3,2 km/h (1 Bft) 100,00 %
15.10.2016 23:36 11,0 C 95 % 1017,9 hPa 0,0 l/m 0,5 km/h (0 Bft) SW 215 0 min 0,000 mm 0,0 UV-I 0 W/m 10,2 C 11,0 C 1,6 km/h (1 Bft) 100,00 %
15.10.2016 23:38 11,1 C 95 % 1017,8 hPa 0,0 l/m 0,1 km/h (0 Bft) SW 215 0 min 0,000 mm 0,0 UV-I 0 W/m 10,3 C 11,1 C 1,6 km/h (1 Bft) 100,00 %
15.10.2016 23:40 11,2 C 95 % 1017,9 hPa 0,0 l/m 0,0 km/h (0 Bft) SW 215 0 min 0,000 mm 0,0 UV-I 0 W/m 10,4 C 11,2 C 0,0 km/h (0 Bft) 100,00 %
15.10.2016 23:42 11,2 C 95 % 1017,9 hPa 0,0 l/m 0,0 km/h (0 Bft) SW 215 0 min 0,000 mm 0,0 UV-I 0 W/m 10,4 C 11,2 C 0,0 km/h (0 Bft) 100,00 %
15.10.2016 23:44 11,3 C 95 % 1017,9 hPa 0,0 l/m 0,0 km/h (0 Bft) SW 215 0 min 0,000 mm 0,0 UV-I 0 W/m 10,5 C 11,3 C 1,6 km/h (1 Bft) 100,00 %
15.10.2016 23:46 11,3 C 95 % 1017,9 hPa 0,0 l/m 0,4 km/h (0 Bft) SW 215 0 min 0,000 mm 0,0 UV-I 0 W/m 10,5 C 11,3 C 1,6 km/h (1 Bft) 98,11 %
15.10.2016 23:48 11,3 C 95 % 1017,9 hPa 0,0 l/m 1,0 km/h (0 Bft) SW 215 0 min 0,000 mm 0,0 UV-I 0 W/m 10,5 C 11,3 C 1,6 km/h (1 Bft) 97,37 %
15.10.2016 23:50 11,2 C 95 % 1018,0 hPa 0,0 l/m 2,4 km/h (1 Bft) SW 215 0 min 0,000 mm 0,0 UV-I 0 W/m 10,4 C 11,2 C 3,2 km/h (1 Bft) 97,87 %
15.10.2016 23:52 11,2 C 94 % 1018,0 hPa 0,0 l/m 1,0 km/h (0 Bft) SW 215 0 min 0,000 mm 0,0 UV-I 0 W/m 10,3 C 11,2 C 1,6 km/h (1 Bft) 97,87 %
15.10.2016 23:54 11,1 C 94 % 1017,9 hPa 0,0 l/m 0,4 km/h (0 Bft) SW 215 0 min 0,000 mm 0,0 UV-I 0 W/m 10,2 C 11,1 C 1,6 km/h (1 Bft) 98,11 %
15.10.2016 23:56 11,0 C 95 % 1017,9 hPa 0,0 l/m 0,1 km/h (0 Bft) SW 215 0 min 0,000 mm 0,0 UV-I 0 W/m 10,2 C 11,0 C 1,6 km/h (1 Bft) 93,62 %
15.10.2016 23:58 10,8 C 94 % 1017,9 hPa 0,0 l/m 0,4 km/h (0 Bft) SW 215 0 min 0,000 mm 0,0 UV-I 0 W/m 9,9 C 10,8 C 1,6 km/h (1 Bft) 97,87 %
_ Min-Zeit 08:34 15:34 05:30 - 20:28 - - - - - - 08:34 03:24 22:04 05:24
Minimum _ 9,2 C 65 % 1005,8 hPa - 0,0 km/h (0 Bft) - - - - - - 8,6 C 5,8 C 0,0 km/h (0 Bft) 92,31 %
_ Max-Zeit 15:28 08:52 23:50 03:44 03:24 - - 08:54 12:00 13:06 13:06 14:34 15:30 03:24 00:00
Maximum _ 18,8 C 97 % 1018,0 hPa 0,2 l/m 17,1 km/h
O (3 Bft)
- - 2 min 0,279 mm 2,1 UV-I 578 W/m 13,4 C 18,8 C 22,5 km/h
O (4 Bft)
100,00 %
Durchschnitt _ 13,2 C 85 % 1011,9 hPa #0,8 l/m 5,3 km/h (1 Bft) W-SW - #7:15 h #1,880 mm 1,3 UV-I 288 W/m 10,6 C 12,7 C 8,9 km/h (2 Bft) 98,72 %